GFSGL_sfc_temp_072.txt.gz
Temp
65 68 69 69 68 67 69 69 68 68 68 69 69 69 69 68 68 67 67 66 65 64 64 64 63 63 62 62 62 61 61 61 59 60 61 62 63 63 62 63 63 63 62
66 69 68 66 65 65 67 67 68 68 69 69 70 69 68 68 68 67 66 66 64 63 63 63 64 63 63 62 62 62 61 61 61 59 60 61 61 63 62 62 62 63 63
66 65 63 64 65 65 66 67 67 68 68 69 69 69 68 68 68 68 67 65 65 65 64 63 63 63 62 62 62 62 62 61 61 60 59 61 61 61 61 61 61 60 61
64 63 64 64 66 66 67 67 67 68 68 69 69 69 69 69 68 66 66 65 65 65 64 64 63 63 63 63 62 62 62 61 60 60 60 60 60 60 60 58 57 59 59
64 64 65 66 67 67 67 67 67 68 68 69 69 69 68 68 67 65 65 65 64 63 63 63 63 62 60 61 62 62 61 60 60 60 59 60 58 58 58 58 58 58 58
65 65 66 66 67 68 68 68 68 68 68 68 68 67 66 67 53 55 61 64 63 63 62 61 61 59 57 54 54 55 60 60 58 58 57 58 59 58 58 58 58 59 57
65 66 66 67 67 67 67 67 66 66 67 67 66 66 65 64 50 51 54 63 63 63 61 60 60 61 60 61 53 53 54 54 56 58 58 60 60 59 59 58 60 60 57
65 66 67 67 66 66 66 66 66 65 65 65 64 64 63 59 49 48 51 63 62 61 61 60 61 62 61 61 59 60 61 59 58 59 61 62 64 63 63 63 60 57 58
66 66 67 67 65 66 65 64 63 63 63 63 63 61 61 57 45 46 57 62 61 60 61 61 62 61 51 49 60 60 58 56 49 48 49 50 48 50 56 61 58 59 55
67 66 67 66 66 65 64 63 63 63 62 61 60 60 54 55 43 46 56 61 60 60 60 58 49 57 46 46 61 59 57 56 56 56 56 52 51 52 51 62 62 59 57
65 67 66 66 65 63 63 62 62 61 60 59 58 58 57 55 51 46 49 62 61 60 59 59 57 45 43 45 50 60 56 56 54 58 58 57 58 58 60 61 62 61 61
63 64 65 64 63 63 62 61 61 60 58 57 56 55 56 56 49 46 46 50 54 61 59 59 54 43 42 43 51 43 45 52 59 58 57 56 56 57 58 59 60 61 61
62 63 62 63 63 63 62 60 60 59 58 57 57 55 55 56 54 45 44 43 47 58 60 52 43 41 41 44 43 44 47 58 59 57 56 56 57 58 58 58 59 60 59
59 60 61 61 61 63 62 61 61 59 59 59 57 56 57 57 56 53 52 52 47 51 48 50 49 47 47 47 49 53 57 59 59 56 56 56 57 56 56 57 58 58 57
59 61 61 61 61 55 51 56 61 60 60 60 59 59 57 57 57 52 53 56 57 52 52 55 55 54 53 54 56 56 57 58 58 57 56 56 56 56 55 57 57 58 57
61 60 61 61 59 56 56 52 41 43 45 47 49 56 58 50 44 44 45 44 43 45 56 56 55 55 54 55 55 55 56 55 59 58 57 57 56 55 55 56 56 58 60
61 60 60 59 60 58 58 58 53 47 41 42 44 46 48 45 43 42 42 41 42 47 58 57 56 55 55 57 56 56 56 58 59 58 58 58 56 55 54 55 56 58 58
61 51 61 61 61 60 59 58 58 58 57 54 43 44 41 41 40 40 40 45 52 53 58 57 57 56 57 58 58 57 57 58 59 58 58 58 58 56 55 55 56 55 55
61 62 62 60 60 57 58 58 58 58 57 54 50 45 40 39 39 40 43 57 56 56 56 57 59 58 58 58 59 59 60 58 59 58 58 58 58 57 56 57 57 47 51
63 50 55 59 58 59 59 58 57 56 55 56 55 52 48 51 52 52 56 57 57 58 58 58 57 58 59 59 59 59 59 57 58 59 60 59 58 59 58 60 61 60 59
61 59 47 60 60 60 59 59 58 58 57 57 54 51 43 57 56 56 56 57 58 59 60 58 59 59 60 59 58 59 59 59 59 59 59 61 60 59 60 62 61 60 56
62 61 62 60 60 60 58 59 59 58 57 55 54 49 40 59 58 58 59 58 59 60 60 60 59 59 59 59 59 58 62 60 60 61 59 60 61 59 59 57 59 59 56
63 63 62 61 61 51 57 58 58 58 57 56 56 56 57 58 59 56 54 52 51 51 53 56 56 53 53 53 54 58 59 61 59 62 62 60 59 60 59 58 58 57 61
64 63 63 60 61 60 58 57 57 51 57 57 56 56 58 55 51 50 49 48 47 46 48 48 48 49 48 49 49 49 51 49 52 56 56 57 61 57 62 60 61 61 62
65 64 62 60 60 60 57 58 56 56 56 57 56 53 52 51 48 47 45 45 45 44 44 45 45 44 44 45 44 44 36 35 47 45 58 60 58 58 59 60 59 58 56
62 61 61 62 61 61 59 58 57 56 56 54 51 49 49 47 46 44 43 43 43 42 43 43 44 43 43 42 41 36 37 37 43 39 52 52 52 53 53 52 51 50 49

GFSGL_sfc_temp_075.txt.gz
Temp
68 69 69 71 73 75 75 76 76 78 79 79 78 77 77 77 78 76 77 76 73 69 74 73 73 73 75 74 74 74 73 73 71 68 67 67 66 66 67 67 68 71 71
68 70 70 71 74 75 75 76 77 78 79 80 79 79 79 79 77 77 76 75 70 68 70 73 73 73 72 72 74 71 73 72 73 68 65 64 64 64 66 65 66 70 75
63 67 70 70 73 74 75 76 78 78 78 80 80 79 79 78 77 78 77 75 69 69 72 73 73 72 71 73 72 72 73 72 72 72 68 64 63 63 63 63 63 64 65
60 63 68 70 73 74 75 76 77 79 78 79 79 80 79 78 78 78 76 71 70 73 74 74 74 73 72 72 72 72 72 71 70 71 69 64 63 62 64 60 60 62 61
57 60 68 71 74 75 75 76 77 77 78 80 79 79 79 78 79 76 74 71 73 73 73 74 73 70 64 68 73 72 71 71 71 70 66 64 61 60 62 61 58 59 60
56 57 68 72 74 74 75 75 76 77 77 78 77 77 76 78 54 57 67 74 74 73 72 72 72 62 61 55 54 55 66 69 69 64 63 65 62 61 60 60 60 59 57
54 57 68 73 75 75 75 75 74 72 73 75 75 76 75 74 51 53 57 75 73 73 72 71 70 72 65 70 55 53 54 54 57 68 61 60 63 62 60 58 60 65 64
54 60 73 75 76 75 73 72 69 70 72 72 73 74 73 71 51 50 53 74 73 73 72 71 71 70 70 70 70 67 67 63 62 63 61 61 66 68 65 62 63 62 62
62 67 71 75 72 69 69 68 68 70 70 71 71 68 67 64 47 47 61 73 72 71 72 71 71 71 52 49 67 67 64 59 50 49 50 52 50 53 62 68 65 63 59
65 68 72 72 70 69 68 68 69 70 68 66 67 68 63 65 44 47 61 75 71 71 70 67 51 64 46 46 68 65 60 58 59 58 57 54 54 56 52 67 70 65 64
63 69 72 73 71 69 67 68 67 65 64 65 65 69 69 65 55 45 49 74 74 71 70 69 68 47 44 44 50 64 61 63 56 60 63 61 61 60 63 66 67 69 68
64 68 70 70 69 68 67 67 64 64 63 66 63 60 60 62 51 46 47 54 58 72 68 71 63 43 43 44 52 44 45 54 65 61 62 61 58 58 61 63 66 69 67
65 64 66 68 67 67 66 66 67 66 68 66 66 60 60 61 58 44 44 46 52 68 72 57 44 41 42 46 43 44 48 64 65 63 61 60 61 61 62 61 63 64 63
62 62 64 64 64 66 66 66 66 68 68 68 65 64 62 61 59 59 57 56 49 57 51 56 51 49 47 51 52 56 64 65 63 63 61 61 61 59 59 60 59 62 61
61 62 61 62 62 58 56 65 71 71 68 68 68 68 63 61 61 56 58 64 67 59 57 58 58 57 56 56 58 62 64 66 66 61 60 58 58 57 56 58 59 62 60
64 62 61 59 59 59 60 56 42 46 45 46 50 64 68 52 45 44 45 44 44 45 61 59 57 57 56 57 58 59 63 61 66 61 59 58 57 56 55 56 58 57 66
62 64 62 59 61 65 67 63 57 48 42 42 43 44 48 48 43 43 42 41 42 48 63 62 58 57 57 58 59 62 61 64 65 63 60 59 58 57 55 56 56 59 60
63 53 63 63 67 68 69 68 63 59 58 56 43 47 41 42 42 41 41 45 53 55 63 62 63 58 59 61 60 60 63 61 63 63 63 62 58 57 58 61 60 63 62
63 65 67 69 70 67 70 67 66 65 62 56 53 46 41 39 39 40 42 64 60 60 61 60 62 62 59 60 61 64 63 62 62 62 62 63 62 60 57 58 56 47 50
66 52 60 67 66 70 69 69 69 65 62 60 60 52 49 52 54 54 59 61 66 64 61 61 64 60 60 62 62 63 63 65 66 66 64 62 62 63 60 60 60 60 61
66 66 52 71 72 72 71 71 69 67 65 59 55 53 44 60 55 56 57 60 61 64 66 62 59 60 61 65 63 63 64 62 65 64 65 66 62 60 61 63 63 68 66
70 70 72 73 72 71 70 68 68 64 60 55 55 50 39 60 59 59 59 59 62 64 66 64 63 61 62 61 60 59 64 63 66 64 63 64 67 65 64 66 67 67 63
73 73 72 71 70 56 65 66 62 60 58 58 60 60 60 60 59 55 52 50 52 55 54 56 55 54 53 54 57 58 63 67 65 66 62 60 61 63 62 62 58 59 65
74 73 72 68 68 64 62 61 60 54 60 61 62 61 58 55 52 50 49 48 48 49 48 49 47 48 49 55 50 51 57 58 63 68 64 66 63 60 64 60 61 61 59
74 72 72 69 68 62 58 59 60 61 61 61 58 55 53 50 49 47 46 46 47 48 48 47 46 47 46 49 51 49 40 35 52 46 60 58 58 58 58 57 54 53 53
72 71 70 71 70 67 61 58 59 59 57 55 53 52 49 46 45 43 42 43 43 45 47 46 45 43 45 40 37 35 35 36 42 38 54 55 53 52 51 51 52 51 51

GFSGL_sfc_temp_078.txt.gz
Temp
72 73 73 74 75 76 76 78 80 82 81 85 86 85 83 81 81 80 83 83 81 81 80 78 79 80 82 83 83 83 81 81 77 78 79 72 70 72 73 74 75 79 76
74 72 72 73 74 75 76 78 80 79 81 85 86 84 84 84 82 82 83 84 81 79 79 79 79 80 77 79 81 78 80 80 79 71 71 70 71 71 68 68 74 79 77
73 73 71 69 70 74 76 77 80 81 81 85 87 86 86 86 84 84 84 83 82 81 79 78 79 78 76 79 78 79 79 78 78 74 70 72 69 66 65 66 69 69 74
72 71 70 69 67 71 77 77 81 83 83 85 86 87 88 87 86 86 85 83 82 80 79 79 79 78 77 77 77 76 77 76 76 75 69 70 69 65 66 63 65 66 65
69 69 69 70 68 72 77 78 81 83 84 87 86 87 88 87 88 85 84 82 79 78 78 80 79 76 68 71 79 76 75 74 71 72 72 68 68 63 64 65 63 63 63
66 67 70 71 70 71 78 78 80 82 83 85 85 86 85 87 57 61 75 80 79 79 77 77 79 66 65 57 55 56 63 74 73 70 67 71 67 67 65 66 63 60 58
63 66 68 69 70 71 78 79 80 80 82 83 84 85 83 84 55 55 60 81 79 78 77 77 78 79 70 76 56 53 55 54 56 70 68 68 68 64 66 63 65 63 61
59 62 64 68 70 73 78 79 79 81 80 82 82 83 81 76 52 53 57 79 78 78 78 77 77 76 74 76 76 75 75 72 70 71 68 68 67 64 66 67 63 64 65
54 59 65 68 69 75 78 79 80 80 80 81 82 81 76 69 50 50 64 79 77 77 79 79 77 77 54 50 75 74 71 67 53 49 51 52 50 52 61 63 59 60 63
59 66 69 70 71 78 80 76 77 79 79 83 79 77 68 71 47 50 64 81 75 78 77 76 51 68 47 47 73 72 65 65 62 58 58 55 54 57 52 68 65 64 62
53 57 61 72 77 76 72 72 73 73 74 75 74 75 76 71 59 48 48 81 79 79 78 76 76 46 45 45 48 69 66 68 58 60 60 60 66 67 69 71 69 67 70
61 68 69 69 70 70 70 70 71 72 71 71 72 73 72 72 54 47 47 52 64 79 79 79 70 45 44 44 52 46 48 55 66 64 63 61 63 62 65 69 71 72 68
61 63 66 68 68 69 68 69 70 73 70 70 74 69 72 73 66 45 46 48 49 72 81 56 45 42 43 49 44 44 47 66 68 68 66 67 66 63 64 68 67 66 70
60 63 64 66 66 67 70 75 75 74 73 72 69 72 72 71 68 68 66 66 53 65 55 62 55 54 48 57 54 55 67 68 67 66 65 67 66 62 61 62 64 68 69
61 61 63 63 63 63 62 70 77 74 74 72 75 75 72 71 71 65 66 74 76 66 67 65 65 65 62 61 64 68 73 72 68 66 66 65 64 61 59 61 63 65 64
63 60 59 60 62 64 64 58 45 49 47 48 55 69 76 56 47 45 43 44 46 47 69 68 63 63 60 62 65 70 72 66 67 66 64 64 63 61 58 58 61 60 63
62 60 61 61 67 66 68 65 60 53 43 41 43 48 52 48 44 44 43 43 43 48 71 67 62 62 63 63 68 71 72 73 72 68 67 64 62 59 55 56 57 61 58
63 52 66 68 68 75 72 70 66 69 65 62 45 48 43 42 42 42 42 47 59 62 69 67 65 63 63 63 68 71 72 72 72 69 65 63 61 58 57 57 56 60 60
62 63 68 74 75 71 74 72 73 71 66 61 59 48 43 40 40 42 45 70 66 65 67 68 68 66 63 65 69 66 71 69 69 69 68 65 63 59 60 62 59 46 54
67 58 64 70 73 74 74 72 68 68 69 71 72 60 52 52 54 56 65 72 71 70 67 68 70 68 63 67 64 70 71 69 69 69 69 69 67 64 61 60 59 58 57
68 71 54 74 73 76 75 73 72 72 70 72 70 60 47 71 63 63 66 69 70 70 71 71 68 69 68 66 68 70 72 74 73 71 69 68 64 66 67 64 62 62 64
72 73 74 74 74 74 73 72 74 72 71 69 62 57 40 68 63 59 58 60 63 63 67 67 66 63 62 65 69 70 70 69 71 68 67 68 67 65 63 64 64 64 63
75 75 77 74 72 62 73 73 73 73 69 63 62 63 65 62 58 56 54 59 60 63 62 61 56 55 56 61 60 63 64 68 70 69 66 63 63 66 69 63 63 64 63
79 76 74 74 76 74 73 72 70 60 63 63 62 58 55 53 51 49 48 50 49 49 50 48 49 51 52 53 52 53 56 54 74 68 67 61 61 59 62 61 63 61 59
80 78 77 74 72 70 69 66 63 64 65 61 57 53 51 49 47 47 46 48 47 45 45 45 44 44 46 47 45 44 36 35 57 45 66 64 59 60 58 57 58 57 56
76 75 73 71 66 67 65 63 62 61 60 57 53 49 48 46 45 45 46 51 50 47 47 45 45 43 42 42 41 36 35 37 44 39 56 55 51 50 50 50 50 49 52

GFSGL_sfc_temp_081.txt.gz
Temp
76 75 75 76 76 77 77 77 77 76 78 80 84 85 84 85 85 83 83 84 80 79 82 82 80 82 80 80 84 84 82 82 78 73 80 75 73 75 76 77 75 76 73
76 76 75 75 75 75 76 77 78 78 79 81 83 83 86 86 85 83 81 84 82 81 81 82 80 82 78 78 83 80 81 81 80 69 74 74 70 73 72 73 73 76 72
76 75 74 74 73 73 74 75 78 80 80 82 83 84 87 87 85 83 83 85 84 83 82 80 80 79 76 77 79 78 78 79 76 77 71 73 71 73 69 68 70 72 71
75 73 72 72 73 73 74 73 76 80 80 82 81 85 90 88 87 85 85 86 85 84 82 82 82 78 77 77 78 78 78 75 73 70 73 71 70 70 68 66 65 67 69
73 71 66 69 72 74 73 73 75 77 80 82 83 85 88 88 90 86 86 85 83 82 81 82 82 77 71 73 78 76 74 75 71 68 66 69 68 67 67 69 65 63 64
71 69 68 67 68 71 73 73 72 75 79 80 82 86 86 90 66 64 78 84 82 81 79 80 79 70 66 59 58 56 65 72 71 68 68 68 69 67 71 68 66 63 61
69 67 65 66 66 66 72 73 73 73 77 78 81 84 85 85 57 57 62 84 81 80 79 77 78 80 72 78 57 55 55 54 57 71 69 69 69 68 68 67 67 67 67
65 64 64 64 64 66 68 71 72 74 76 77 80 84 84 83 54 55 59 82 80 80 79 78 78 75 75 77 76 75 75 74 72 74 73 73 71 64 65 66 65 64 63
60 60 61 61 60 62 65 68 72 74 77 78 82 82 83 71 52 54 66 80 78 78 80 80 78 78 58 54 76 74 74 71 54 50 51 50 50 50 59 62 60 61 59
57 56 56 56 57 61 65 68 73 75 77 82 81 82 71 72 49 54 67 82 76 78 79 74 52 71 48 51 75 74 70 69 69 67 66 58 57 57 52 66 64 60 60
56 54 53 54 56 62 66 71 73 74 76 76 79 78 75 71 64 53 51 82 80 80 79 75 75 47 46 46 48 72 67 68 61 66 65 65 65 64 65 68 69 67 61
54 53 53 56 59 68 70 71 73 73 73 74 73 72 75 73 58 49 49 56 66 80 79 78 65 45 44 46 54 47 49 58 70 66 62 62 63 66 68 68 69 69 65
52 55 59 61 66 67 68 70 71 70 70 70 70 70 70 76 69 47 46 48 53 77 67 57 45 43 44 49 46 46 48 69 69 67 63 64 68 69 69 70 70 69 70
53 64 62 60 58 64 70 69 68 68 70 72 74 73 74 73 71 74 70 67 55 59 54 63 57 56 50 58 59 58 70 73 66 64 67 69 70 66 65 69 68 69 70
56 61 65 67 68 66 64 67 70 74 77 80 79 78 75 74 75 68 70 75 76 67 67 69 69 68 67 67 67 69 66 66 66 66 68 67 66 62 62 66 66 67 67
58 59 60 62 61 61 61 57 44 47 49 51 57 72 77 57 47 46 45 47 49 52 71 69 65 66 65 65 68 70 70 64 66 66 66 66 66 64 60 61 63 65 64
57 60 61 62 68 69 67 67 64 52 44 42 47 50 52 46 43 43 44 45 45 51 70 66 64 65 67 69 71 70 70 70 72 69 68 66 66 65 60 60 59 58 62
60 51 64 68 70 71 74 73 73 70 69 65 46 49 43 42 41 42 44 51 65 63 69 66 65 66 68 70 71 71 69 69 69 68 67 67 66 63 60 58 56 57 62
60 59 63 69 74 72 75 76 74 74 68 61 55 48 44 41 42 43 45 73 72 69 69 69 69 68 69 71 71 69 72 70 70 66 68 68 66 64 62 61 59 48 51
60 51 58 66 76 75 77 75 73 70 70 69 65 55 53 54 56 62 71 72 70 71 72 70 71 70 70 71 71 71 71 71 69 67 66 66 67 65 62 61 63 59 60
61 68 50 66 70 75 76 75 73 75 72 72 67 62 46 63 62 69 70 69 73 72 73 73 74 70 72 72 70 66 71 73 72 70 71 70 69 66 65 65 64 65 63
72 73 71 71 71 73 75 75 75 73 70 72 70 62 41 69 68 67 67 68 66 67 71 72 72 70 69 71 69 69 73 71 73 71 70 69 69 66 68 67 67 64 62
71 73 71 67 69 59 67 71 73 70 71 72 71 70 67 65 62 58 57 62 65 59 56 59 60 60 63 65 67 66 68 71 72 72 68 69 66 64 67 64 63 63 61
71 73 72 71 70 71 72 73 72 62 70 68 62 61 60 58 54 55 53 53 59 56 53 49 48 53 50 53 52 57 54 59 64 70 64 66 64 60 65 67 61 60 59
74 70 73 73 72 69 69 68 67 64 61 60 57 53 51 51 49 48 47 47 47 46 44 44 44 47 46 47 47 47 38 36 57 49 68 64 59 56 54 54 55 54 55
74 72 70 70 68 70 66 63 62 62 58 53 51 48 48 48 47 48 45 45 44 43 42 42 42 42 43 42 39 35 35 37 46 40 60 57 52 49 49 49 49 48 48

GFSGL_sfc_temp_084.txt.gz
Temp
72 72 71 71 71 71 70 70 70 70 71 72 72 73 74 78 78 77 76 77 77 76 76 75 74 75 75 73 73 74 72 71 67 67 69 69 68 68 68 69 68 67 65
75 73 70 72 71 69 70 70 71 71 72 72 73 74 75 78 78 78 78 79 78 76 75 75 75 77 74 73 73 72 71 71 69 65 66 66 66 68 67 67 68 70 68
76 74 70 68 68 68 69 69 71 71 71 73 74 74 75 77 77 79 79 78 78 76 76 76 76 74 73 72 72 72 71 72 70 68 65 67 65 66 64 64 65 66 68
75 74 70 69 67 67 68 69 70 71 70 71 73 76 77 79 79 81 79 78 77 77 77 77 76 75 73 72 71 71 71 69 68 66 65 64 64 65 65 62 62 64 65
71 69 69 69 69 68 67 67 69 70 71 72 72 76 77 78 82 81 80 78 76 77 77 77 76 74 70 72 72 70 70 68 67 65 63 63 63 62 61 62 62 61 62
72 71 71 70 68 67 65 65 65 66 69 70 70 72 74 80 68 61 74 77 76 76 75 76 72 64 61 57 56 57 67 68 66 64 63 62 63 63 64 62 61 59 57
71 71 71 70 68 66 65 64 64 63 65 67 68 70 73 76 62 56 62 76 76 76 75 73 72 74 67 65 55 56 55 56 60 66 64 64 63 64 63 63 61 60 61
69 69 70 68 65 64 63 62 61 61 62 64 68 69 72 76 59 52 58 76 75 75 75 74 72 70 71 71 67 67 67 64 63 67 65 65 66 66 65 63 62 61 61
65 66 67 68 64 63 61 60 61 60 60 62 67 68 70 73 51 51 61 75 74 74 75 74 73 71 57 55 70 68 67 62 51 50 51 49 48 49 59 62 60 59 57
64 64 65 65 63 61 60 59 59 59 60 63 65 69 68 73 49 50 66 74 72 72 73 70 59 69 49 53 69 68 65 64 65 63 61 57 54 55 51 63 61 59 58
61 61 59 58 56 56 57 58 57 57 59 61 64 68 72 72 60 50 59 74 74 73 72 69 65 49 48 47 52 67 64 66 59 64 63 63 63 63 62 62 64 62 59
58 56 54 54 53 54 53 55 56 56 58 60 63 67 70 68 56 51 56 64 62 73 72 72 56 44 44 45 55 49 50 59 65 62 62 62 61 61 63 63 64 65 63
53 52 52 52 52 52 52 52 54 57 58 61 64 66 67 66 58 49 50 54 57 72 74 58 44 43 44 47 45 45 48 64 65 62 60 59 60 64 65 64 65 65 64
51 52 53 56 52 53 54 56 55 59 60 63 65 66 65 62 61 61 60 58 51 53 50 52 53 53 55 54 54 54 65 65 63 62 63 63 65 63 61 63 62 62 61
53 55 61 55 53 53 54 56 60 64 65 66 67 67 65 64 68 62 65 69 68 60 60 62 63 63 63 63 64 64 65 65 63 63 62 62 63 61 59 62 63 62 62
54 60 62 59 58 57 58 56 43 52 50 52 54 66 69 58 50 49 49 49 49 51 65 65 64 64 63 62 64 64 64 61 64 63 62 62 61 61 59 60 61 61 60
58 59 61 60 60 59 59 59 54 50 46 47 48 50 53 47 46 46 47 47 48 54 67 65 63 63 63 63 65 66 64 66 65 64 62 61 61 60 57 57 58 59 59
59 51 65 65 64 64 64 63 63 62 60 57 47 49 45 44 43 44 45 51 62 62 67 64 63 63 65 66 66 65 65 66 66 64 63 61 60 59 59 57 57 58 56
58 59 63 67 68 67 70 67 65 62 57 53 53 48 43 41 43 45 49 68 67 67 66 65 63 63 66 67 67 67 67 66 65 64 62 61 61 59 59 59 58 46 49
60 50 54 66 70 69 71 68 66 63 62 60 57 55 56 58 62 64 68 69 68 69 67 66 66 66 67 67 67 67 66 65 65 63 62 62 62 62 60 60 60 56 57
58 61 48 67 68 68 67 67 67 65 62 59 57 58 46 66 66 68 67 67 68 67 68 68 68 66 68 67 67 67 67 66 66 65 64 64 63 62 62 61 62 60 57
59 63 68 68 68 72 72 72 70 66 63 61 59 54 39 71 68 64 65 64 63 63 67 66 66 68 66 66 67 64 64 65 66 65 66 65 65 63 62 62 62 62 59
61 64 65 66 67 59 68 70 70 68 66 65 64 64 63 61 60 60 60 59 57 56 57 60 62 61 60 61 60 60 62 62 65 66 65 63 63 63 63 60 60 59 59
66 64 64 62 66 67 66 68 67 60 68 66 62 59 56 55 54 54 54 54 50 48 48 48 49 51 53 54 53 52 54 57 65 66 63 61 60 58 61 59 60 59 57
67 66 64 63 65 66 67 65 63 64 62 59 56 53 51 49 47 46 47 45 44 43 43 43 45 45 45 47 47 48 38 38 55 49 62 58 56 54 54 53 53 52 52
67 65 65 67 67 65 63 61 59 57 54 52 50 49 48 45 45 44 43 42 41 41 42 41 42 44 42 41 41 37 37 38 46 41 57 54 51 49 49 49 49 49 49

GFSGL_sfc_temp_087.txt.gz
Temp
65 63 64 64 64 64 62 62 63 64 66 68 68 69 69 69 68 70 70 70 69 71 72 69 68 67 67 70 67 66 64 63 61 62 64 64 64 64 65 65 65 64 64
66 64 64 63 63 62 63 63 62 63 66 67 69 70 70 71 68 68 72 75 73 71 72 72 72 73 70 70 67 66 65 63 62 60 61 62 62 64 64 63 65 67 65
67 66 62 61 62 61 62 62 62 62 63 64 69 68 70 71 70 70 71 74 74 71 72 73 72 70 71 69 67 66 65 66 64 61 60 61 61 62 61 61 62 62 64
64 63 61 61 60 61 61 62 62 63 62 64 65 68 70 71 73 72 74 73 75 74 72 72 72 71 72 70 66 66 65 64 62 61 60 60 60 61 60 58 58 61 63
64 66 64 61 61 61 60 61 62 61 63 64 65 67 68 70 73 73 73 73 71 73 72 73 72 70 67 69 69 66 65 62 61 60 59 59 59 58 58 58 58 61 61
63 61 62 62 62 60 59 59 59 59 59 61 62 64 65 70 61 57 64 74 73 73 71 73 71 63 63 61 62 62 65 63 61 59 59 58 58 59 59 58 58 58 57
61 62 63 62 62 61 61 58 57 56 57 59 60 61 63 65 56 54 56 65 68 72 71 71 67 68 64 65 56 55 57 58 62 62 60 59 59 61 59 58 57 56 57
61 64 66 65 64 63 60 58 55 55 56 57 58 60 61 63 55 53 53 62 67 72 71 69 68 63 64 65 64 63 61 61 60 63 62 61 61 62 61 61 59 59 59
61 63 65 66 65 63 60 58 57 56 56 57 60 59 59 61 53 51 54 62 67 71 70 69 67 65 54 54 67 62 60 56 50 50 50 49 46 48 56 60 59 58 56
58 60 62 65 66 65 64 61 60 58 58 59 60 59 57 58 55 51 53 62 66 69 67 67 58 64 50 53 64 62 59 57 57 56 55 54 52 53 51 60 59 57 57
57 58 59 59 59 61 64 64 60 56 57 56 56 57 58 58 58 51 52 60 67 69 66 64 64 52 49 50 55 62 60 60 56 58 58 59 58 57 58 58 59 58 56
55 56 57 57 57 57 56 56 58 57 54 53 53 54 57 57 55 53 50 48 60 67 64 63 59 48 46 49 55 47 49 55 59 57 58 59 58 58 58 59 60 60 60
53 53 53 53 53 54 53 53 52 54 54 53 53 51 52 56 59 51 47 47 52 65 64 57 46 43 44 47 45 46 50 59 57 55 56 56 57 61 59 59 60 61 61
50 51 52 51 50 51 51 51 51 51 52 53 51 50 52 56 61 56 56 55 52 55 50 51 50 51 54 50 51 51 59 59 58 56 56 57 59 58 58 59 59 58 59
49 50 50 51 51 51 51 51 52 53 54 52 51 52 54 60 61 57 59 61 60 56 55 58 58 57 55 55 55 57 57 58 59 57 58 58 59 57 56 59 59 58 57
49 50 52 51 50 50 51 49 46 49 46 47 49 54 62 58 49 48 49 48 47 49 61 59 57 57 57 57 57 56 58 57 58 58 60 60 59 58 57 58 58 59 58
51 55 52 51 49 49 49 48 48 47 44 46 45 48 49 48 44 47 48 48 47 54 61 59 58 58 57 58 57 58 57 58 58 57 57 60 59 58 55 57 57 55 57
56 50 56 56 54 54 53 53 53 52 53 53 45 49 46 45 47 48 47 52 60 59 61 59 58 58 57 57 57 59 58 58 58 57 56 57 59 58 56 56 56 56 56
56 58 60 60 60 58 60 59 59 58 55 53 53 48 46 46 46 46 50 63 61 59 59 58 59 59 60 59 61 62 61 58 58 57 56 57 59 56 54 57 56 45 48
55 52 56 61 60 60 59 59 59 58 59 59 57 53 54 58 62 61 63 63 62 60 59 58 62 62 59 61 61 59 57 58 57 57 56 59 59 56 57 57 57 52 51
54 61 51 60 60 61 60 59 59 59 58 57 58 56 46 62 61 62 62 62 62 61 62 60 61 63 62 63 60 59 59 61 58 57 59 60 56 55 56 59 57 55 56
56 61 63 62 62 62 60 59 59 60 60 59 58 51 44 63 61 58 58 57 57 59 62 60 60 62 62 60 59 61 61 59 58 58 57 57 58 57 59 58 58 58 56
57 63 64 64 62 53 59 59 60 61 62 61 59 59 59 58 56 53 51 50 51 50 52 54 55 56 56 55 55 59 60 59 59 60 61 59 58 59 58 58 58 57 56
61 63 64 62 62 62 61 59 59 55 58 57 56 54 52 51 49 48 47 46 46 46 47 48 48 48 49 50 50 51 54 57 61 61 60 59 58 56 56 57 57 56 52
62 62 62 61 62 62 62 61 58 56 54 52 50 49 47 46 44 43 43 44 43 43 43 44 44 45 46 47 48 47 39 40 53 46 56 55 52 52 52 52 52 52 52
62 62 61 60 60 59 55 53 52 52 50 48 47 46 44 42 42 41 41 41 41 41 41 41 42 42 43 41 41 37 38 39 44 41 52 51 50 50 50 50 50 49 49

GFSGL_sfc_temp_093.txt.gz
Temp
60 60 59 59 60 59 58 59 58 57 58 59 61 61 61 61 62 61 62 63 65 65 66 67 69 70 66 66 67 67 65 64 62 65 61 62 63 62 63 63 64 64 63
63 63 61 61 61 59 59 60 59 58 58 60 60 61 62 62 61 61 62 64 64 64 66 66 67 69 66 66 65 65 66 65 64 63 61 61 61 61 61 62 63 65 63
61 60 60 61 60 59 60 61 58 60 59 59 60 60 61 62 62 61 62 63 64 64 65 66 67 67 67 66 66 65 65 66 65 63 61 60 60 60 59 60 61 61 62
61 62 61 62 63 63 62 61 59 61 61 59 60 62 62 62 62 62 63 62 63 64 65 65 66 68 67 66 66 66 67 66 64 62 60 59 59 59 59 58 58 58 59
56 58 60 63 64 65 63 63 61 60 61 62 61 60 60 61 63 60 61 59 59 61 63 65 65 65 65 65 67 65 66 64 62 61 59 58 57 59 59 57 57 56 57
57 56 57 57 58 58 58 58 60 59 59 59 59 60 58 63 56 54 56 56 58 58 59 62 63 62 64 58 59 58 65 65 62 61 60 57 57 58 57 57 56 55 54
55 57 57 57 56 56 58 58 58 58 58 58 59 58 57 57 52 52 53 55 54 55 57 59 61 65 62 67 61 55 55 55 58 63 61 59 59 59 58 56 55 55 55
56 57 58 57 57 58 55 56 57 59 58 59 58 57 58 58 50 49 51 53 52 53 56 59 60 62 63 64 67 63 63 62 61 62 63 63 62 60 61 59 58 56 57
56 57 58 59 58 58 57 58 57 58 59 59 62 59 56 58 49 48 49 52 52 52 55 57 59 61 56 50 65 63 63 59 51 53 53 51 49 49 55 58 56 57 57
53 55 57 57 56 56 56 57 59 60 61 60 61 61 57 57 48 47 49 54 50 51 51 53 52 55 51 49 62 64 60 59 57 56 55 50 52 51 50 59 58 58 57
53 54 54 56 56 57 58 59 60 59 60 59 58 59 58 55 54 47 46 53 54 51 51 52 55 50 48 46 50 63 61 58 56 58 57 56 56 58 58 58 58 56 54
51 52 52 54 55 57 56 57 59 59 58 57 56 55 57 56 52 46 45 49 49 51 50 52 53 48 47 44 47 50 48 53 58 57 56 54 55 56 57 58 56 57 57
49 49 51 52 54 55 53 54 55 56 57 57 56 54 53 54 53 47 44 45 45 48 51 50 48 44 44 45 46 48 50 59 58 56 54 54 55 56 56 57 57 57 57
47 47 48 48 49 50 50 51 53 54 54 55 56 56 56 51 50 48 49 47 44 46 48 48 49 48 48 52 51 52 59 59 58 56 54 54 55 56 56 55 55 58 57
46 46 46 47 47 47 48 48 48 51 54 55 55 57 56 55 50 50 50 51 51 51 50 55 53 54 55 56 56 59 58 57 56 54 54 54 54 54 54 56 55 56 54
46 46 46 47 47 48 48 47 46 47 47 47 47 54 59 52 45 44 45 45 45 42 52 54 54 57 58 58 58 58 57 55 56 55 55 55 55 54 54 57 58 56 53
48 49 49 48 50 50 49 48 46 46 46 45 45 44 47 47 44 43 43 42 41 41 51 57 58 59 59 59 59 58 56 56 56 57 57 57 58 57 53 56 56 56 56
45 44 45 47 49 49 49 48 49 49 45 46 42 47 42 43 42 43 41 40 48 45 54 59 59 58 58 58 58 57 56 56 57 56 56 59 58 57 56 55 55 55 55
43 44 48 52 51 49 49 49 50 49 47 47 47 43 42 42 40 39 39 50 50 52 59 59 58 58 58 58 58 58 58 57 56 55 54 55 58 57 55 56 55 46 49
44 43 46 53 52 52 50 49 48 48 48 48 48 47 43 44 47 47 48 51 55 59 59 59 59 58 58 58 58 58 56 54 54 54 53 54 57 56 54 54 55 53 53
45 48 45 57 53 53 51 49 48 48 47 47 48 48 43 50 49 50 51 53 59 59 59 58 58 59 59 59 58 57 57 56 55 54 54 55 56 52 52 53 55 53 52
45 55 58 58 58 58 56 55 53 53 53 52 51 46 39 52 55 58 59 59 59 59 59 59 58 59 59 59 58 57 57 55 54 55 58 56 53 53 53 54 56 55 52
46 59 59 58 58 51 57 58 57 56 54 54 53 53 56 56 56 55 56 57 57 57 57 58 57 56 56 56 58 59 57 56 56 56 55 54 53 53 55 56 56 55 54
58 59 58 56 56 56 54 53 52 49 53 52 52 52 51 51 50 50 51 51 51 51 52 52 53 54 54 53 56 57 56 55 56 57 58 58 56 53 56 55 55 52 49
60 59 57 56 55 54 54 52 51 50 50 49 48 48 47 47 46 46 47 47 47 47 46 48 49 51 52 53 52 50 41 39 52 47 57 57 55 54 54 53 52 51 51
58 57 56 54 53 52 50 49 47 47 46 45 44 44 44 43 43 43 43 43 43 43 43 44 44 45 47 46 45 39 38 39 44 41 52 51 50 50 50 48 47 45 44

GFSGL_sfc_temp_096.txt.gz
Temp
59 59 57 58 58 58 58 59 59 59 59 60 61 62 62 63 64 63 63 65 65 64 66 66 66 67 66 67 68 68 67 65 64 68 66 67 66 67 67 67 67 68 68
61 60 59 59 59 57 59 59 59 59 59 61 61 62 63 63 63 63 63 65 65 65 65 66 67 68 67 67 67 67 67 66 65 64 67 65 65 64 65 65 65 68 68
61 61 59 58 58 57 59 59 59 60 60 60 61 62 63 63 63 63 64 65 64 64 65 65 65 66 66 67 67 66 66 65 65 65 66 64 63 63 62 63 64 67 67
59 59 59 58 59 60 60 61 60 61 61 61 61 63 63 64 64 64 64 63 63 65 64 65 65 65 65 66 67 67 65 64 65 64 63 62 62 62 62 62 62 63 64
57 56 55 56 58 59 60 60 61 61 61 63 62 62 63 63 65 63 63 63 62 62 62 65 65 65 62 62 63 64 66 65 65 62 62 60 60 60 61 62 63 62 63
55 56 57 56 56 57 57 58 58 59 60 61 60 62 61 65 56 54 59 62 61 61 60 62 63 61 61 57 57 56 62 66 63 62 62 61 61 61 61 61 61 60 60
54 56 57 57 57 56 57 58 58 57 58 58 60 60 60 61 52 51 53 60 59 58 59 59 60 64 60 65 60 57 54 55 59 64 63 62 61 62 62 60 61 61 63
53 55 57 58 58 58 56 56 55 57 56 57 59 59 59 60 51 49 51 58 57 58 58 58 58 60 62 61 63 64 66 61 59 61 66 65 65 64 64 63 63 62 61
50 52 55 57 57 58 56 55 55 55 56 56 59 57 57 59 49 48 50 56 57 56 58 58 59 59 53 49 58 59 63 64 53 52 54 52 50 51 57 63 60 59 59
49 51 54 56 56 56 56 55 55 56 57 58 58 58 56 58 49 47 50 60 56 57 56 56 50 54 49 47 54 58 60 63 58 56 58 53 52 53 51 65 62 62 61
50 51 52 53 53 54 54 54 55 55 57 57 57 58 58 56 57 46 46 60 59 57 56 56 56 47 46 43 43 54 58 62 56 59 59 59 59 59 60 62 65 65 61
48 48 48 50 52 54 52 54 55 55 54 55 55 57 59 59 52 46 45 50 52 57 56 57 56 46 45 44 44 45 44 51 60 60 59 58 59 59 60 61 62 62 63
48 48 49 50 51 51 50 51 53 54 54 54 56 56 58 60 57 47 45 45 47 55 59 54 47 44 41 43 43 43 44 59 59 59 58 58 59 60 60 59 61 62 63
45 46 47 47 48 49 50 51 51 51 52 53 54 55 57 57 56 53 50 49 47 50 49 52 49 46 42 47 51 49 55 61 60 59 58 59 59 59 59 60 59 60 60
45 45 45 45 45 45 46 47 48 51 53 53 54 56 56 54 54 50 51 51 51 51 50 52 53 54 55 54 55 54 59 59 59 59 58 58 58 59 58 60 60 59 61
44 44 45 45 46 46 46 46 45 46 46 46 47 53 58 54 45 44 44 45 44 43 50 53 54 55 55 55 55 57 58 57 60 60 60 60 59 58 58 60 63 62 61
44 45 47 47 48 48 47 46 46 46 44 44 43 43 45 50 43 43 43 43 41 42 54 54 54 55 57 57 58 58 58 60 61 61 61 61 61 61 58 60 60 58 57
45 43 42 43 43 44 45 46 48 48 46 44 42 45 43 43 42 43 43 40 42 43 52 52 54 57 58 59 59 59 58 59 61 61 61 62 62 61 60 61 58 59 59
41 41 42 43 44 45 49 49 49 50 47 46 47 41 43 40 41 41 41 52 51 51 51 53 55 58 60 60 60 59 59 60 60 61 62 62 61 60 60 60 57 47 51
40 40 40 44 50 50 49 49 49 49 47 47 46 46 45 43 45 45 50 53 53 53 54 54 57 59 59 59 59 59 59 58 61 60 60 61 59 60 58 58 58 56 57
40 42 41 54 52 50 49 49 49 48 47 47 47 47 43 50 48 50 51 52 53 52 54 59 59 59 60 60 59 59 60 60 60 61 61 62 59 58 58 61 58 56 57
41 46 57 54 54 52 50 50 49 49 49 49 47 45 39 52 52 52 52 52 52 53 61 61 59 60 61 61 61 61 61 61 61 61 61 62 60 59 61 59 57 57 57
45 57 56 56 56 48 53 53 51 51 51 50 49 48 51 50 51 51 51 54 58 58 59 59 60 60 61 62 63 63 62 61 61 63 62 60 60 61 61 58 57 58 59
57 56 55 54 54 53 53 52 52 47 52 50 49 48 50 53 54 54 55 55 55 56 58 60 60 60 60 61 63 63 63 63 63 63 63 62 61 57 58 58 57 54 52
57 55 54 54 53 52 51 50 50 50 50 50 49 49 49 50 50 50 50 51 51 51 52 55 58 59 60 61 58 58 43 40 59 50 62 60 58 57 56 56 53 53 49
55 54 52 52 51 50 49 48 47 47 46 46 46 46 46 46 47 47 47 48 47 47 47 49 50 51 52 51 49 40 38 39 46 43 58 57 54 52 50 48 47 48 48

GFSGL_sfc_temp_102.txt.gz
Temp
77 78 75 74 73 74 75 77 78 78 79 74 79 80 80 79 79 77 78 81 80 78 79 80 78 79 82 84 83 82 80 79 74 78 79 77 74 78 80 80 82 82 80
75 75 76 77 76 74 74 77 78 78 79 80 80 80 80 80 79 77 77 80 79 78 78 78 79 82 77 78 81 77 79 79 76 70 74 76 76 78 79 76 74 77 73
73 73 71 72 75 76 76 76 77 75 78 79 79 79 80 80 79 79 79 79 79 78 79 78 78 78 76 79 79 79 81 80 79 75 74 79 79 76 75 73 71 73 71
70 69 69 66 65 71 74 75 76 77 77 77 79 80 81 81 81 80 79 78 78 79 78 78 78 78 76 76 76 76 77 77 77 77 76 74 74 74 72 69 66 67 66
68 67 64 69 69 67 70 72 75 73 75 77 79 80 81 81 83 80 80 78 77 77 77 78 77 74 64 67 76 75 74 75 77 77 77 75 73 68 67 70 65 65 65
65 64 66 69 70 71 71 68 69 70 71 70 72 74 77 79 64 60 71 78 77 76 75 77 78 67 66 58 57 57 62 69 70 73 75 70 72 74 73 70 63 62 62
64 64 64 67 68 69 71 72 72 71 68 67 69 74 76 78 56 55 57 78 77 76 76 76 77 81 70 77 60 56 55 54 55 68 68 71 71 74 72 69 64 64 63
63 64 65 66 67 68 68 69 69 70 69 69 69 71 73 76 54 50 53 74 76 77 76 75 75 75 75 74 75 74 74 74 72 73 71 73 73 73 73 70 64 64 66
60 63 65 66 65 65 65 66 67 68 68 70 72 71 71 72 52 49 54 73 75 75 77 77 76 75 63 51 72 72 72 73 67 54 51 49 47 49 59 64 62 62 66
58 60 62 64 64 63 63 63 65 67 67 71 71 72 67 72 55 47 54 74 73 75 75 76 56 69 54 48 70 71 70 71 73 72 72 64 54 60 50 62 63 63 67
57 59 59 61 61 62 61 62 63 63 65 66 68 71 72 71 69 47 46 71 74 76 77 76 77 52 50 45 52 71 68 68 65 70 70 70 66 63 60 60 63 64 65
54 53 53 54 56 60 59 60 62 62 61 62 64 67 71 72 57 48 46 48 61 74 77 79 77 50 49 46 48 53 47 47 70 71 70 68 66 60 61 62 64 66 68
51 51 52 53 55 56 55 55 57 58 59 62 64 66 68 73 73 51 46 45 48 66 78 70 58 47 46 47 43 42 41 67 70 69 66 66 64 61 62 62 64 66 71
47 48 50 50 51 53 55 55 55 55 57 59 61 64 67 70 73 75 67 59 48 56 61 70 65 61 56 62 62 55 67 71 70 67 63 64 63 61 60 61 62 65 68
44 46 46 48 48 48 51 52 53 55 56 58 60 62 64 66 70 65 67 71 69 64 65 72 71 71 70 71 71 73 75 73 66 62 60 61 60 59 59 61 63 65 68
42 43 43 43 44 44 44 45 45 46 45 45 45 53 59 53 48 49 48 47 50 48 65 69 70 71 70 71 73 74 74 66 66 64 61 60 59 58 59 62 64 68 71
42 42 42 41 42 42 43 43 42 44 43 43 43 44 43 46 42 44 44 45 44 47 67 68 70 71 72 73 74 75 73 71 67 63 60 59 59 60 58 63 66 72 67
43 42 41 41 41 42 42 43 44 44 44 43 42 44 43 43 42 42 42 42 61 55 67 68 69 71 72 73 75 74 73 71 66 61 60 60 60 59 66 67 70 70 66
39 39 40 41 41 41 42 42 43 43 46 46 47 42 43 41 41 41 40 55 60 63 65 68 70 72 72 74 75 75 72 70 66 60 61 61 61 64 68 68 67 52 59
37 37 37 39 39 40 41 41 41 42 42 45 46 47 46 42 43 45 46 53 57 63 66 68 71 73 74 74 74 73 71 66 62 61 61 61 63 71 72 72 71 68 71
37 39 37 39 40 42 44 43 43 44 44 45 46 48 43 47 47 50 53 58 59 65 64 69 74 74 74 73 73 71 68 61 61 63 62 62 68 68 70 68 69 72 71
40 41 42 46 52 51 50 50 46 46 47 48 48 44 37 52 51 53 56 60 60 65 66 65 69 74 74 73 71 67 61 59 61 62 61 65 71 71 72 71 68 70 69
41 45 49 54 52 46 50 51 50 49 49 48 47 45 46 52 52 55 58 61 61 61 63 66 70 72 72 69 67 62 61 61 63 63 64 71 72 72 72 69 69 67 65
55 55 55 56 53 52 51 50 49 45 49 50 51 52 54 55 56 57 63 61 63 64 65 67 68 67 62 61 62 64 65 67 68 70 71 72 71 64 68 70 68 64 62
54 53 51 53 53 54 53 52 52 54 54 56 57 61 61 60 61 61 60 63 65 64 63 62 60 60 61 62 62 65 56 44 70 59 72 72 70 68 68 62 61 59 53
53 51 49 48 50 52 53 51 50 50 50 51 53 55 57 59 61 62 62 62 58 57 56 59 62 62 62 62 64 51 41 41 60 46 71 71 70 68 66 61 56 53 51

GFSGL_sfc_temp_105.txt.gz
Temp
77 77 77 79 78 77 76 77 78 79 79 80 81 74 72 78 78 74 77 81 82 80 81 79 77 78 80 83 73 69 66 70 67 80 83 84 80 78 78 77 77 78 80
76 76 76 76 78 77 75 75 77 76 77 77 75 80 77 77 74 76 73 77 79 79 80 80 80 79 76 77 80 76 77 76 78 71 76 79 77 78 77 76 77 79 80
76 75 73 73 72 74 74 76 76 74 79 79 81 80 80 79 78 79 78 78 78 79 80 79 79 79 77 79 78 79 81 81 79 77 75 80 81 82 80 78 76 76 78
75 73 71 71 71 70 69 65 68 76 75 79 81 82 83 83 82 81 80 79 79 80 80 79 80 79 78 77 77 76 76 76 77 77 76 77 79 80 78 74 73 74 73
72 71 70 70 71 72 72 62 64 62 71 80 80 81 81 81 83 79 76 79 78 78 79 80 79 76 66 69 77 76 75 75 76 76 76 78 78 79 71 72 70 72 71
69 69 70 70 70 70 70 68 60 59 64 72 76 79 79 82 64 61 72 78 78 77 76 77 78 70 68 60 60 59 63 69 69 71 72 72 71 74 73 70 68 66 65
68 69 69 69 69 69 70 70 61 58 60 66 71 72 75 77 58 51 56 79 75 74 76 76 77 81 70 76 60 57 56 55 57 68 67 68 68 72 71 68 67 68 68
61 64 66 68 68 69 68 69 69 69 62 65 67 68 71 75 57 51 52 71 75 77 77 76 75 77 75 76 76 73 74 74 67 69 69 70 72 72 68 67 68 69 69
59 60 63 65 65 68 67 67 68 68 69 69 72 72 71 72 53 49 53 65 74 76 78 78 77 76 65 54 75 74 74 74 68 58 56 53 46 47 52 66 64 66 63
56 57 61 62 63 65 66 66 67 67 68 71 72 73 68 73 56 49 54 75 72 74 76 77 58 72 56 50 72 73 71 72 74 75 74 66 55 62 49 62 70 65 62
56 58 58 58 57 58 60 64 65 65 66 67 69 71 72 71 71 49 47 72 76 74 76 77 79 54 49 47 54 72 69 71 68 72 73 74 74 74 71 68 69 65 59
53 54 54 56 58 60 59 57 59 62 63 64 65 67 72 72 58 50 47 49 62 74 76 78 78 51 52 47 51 55 47 52 72 72 72 72 72 73 71 70 67 63 63
51 51 52 54 56 56 54 55 57 57 58 61 65 66 68 72 73 52 47 47 49 66 76 71 57 49 50 50 48 51 43 67 69 69 71 72 74 74 71 66 65 63 63
48 49 51 49 50 53 54 54 53 54 56 59 63 66 68 70 73 76 66 59 50 57 61 70 66 59 58 65 61 54 67 71 70 71 72 74 74 70 67 65 59 61 61
45 47 46 46 46 47 50 52 52 54 55 56 60 64 66 68 71 65 67 72 70 66 66 71 73 72 71 72 73 74 72 71 70 72 72 70 68 67 65 61 60 60 59
41 44 45 44 43 44 45 46 46 45 45 45 45 50 63 55 46 48 46 47 51 50 65 69 70 73 72 73 73 73 75 70 75 75 72 68 63 63 58 59 60 59 60
40 40 41 42 42 42 41 40 41 44 42 43 41 43 44 48 42 44 45 43 44 47 68 68 70 71 74 74 75 75 75 78 78 74 68 65 61 61 56 59 60 61 61
40 40 40 41 41 42 41 41 41 40 40 43 42 43 42 42 43 41 42 44 60 51 63 70 70 72 74 75 76 76 76 77 76 69 64 63 61 61 59 58 60 61 64
38 38 39 38 40 41 41 41 42 42 42 44 46 43 42 41 41 40 40 52 58 65 65 68 71 72 74 75 76 77 77 77 72 64 63 62 61 60 59 60 63 51 57
37 37 36 37 38 39 39 40 40 40 40 43 43 45 46 42 43 45 47 50 54 60 65 69 71 72 72 75 77 77 77 71 65 64 63 62 61 61 60 61 65 67 65
36 37 36 38 39 39 40 40 40 40 40 42 42 46 42 45 45 47 49 53 55 61 64 67 71 73 74 76 77 77 76 70 66 64 63 62 60 59 61 64 67 69 69
40 41 41 43 45 46 47 46 43 42 43 42 44 45 37 48 49 51 55 58 60 63 66 63 70 74 77 77 76 76 74 68 65 65 64 62 61 61 64 69 71 71 68
41 43 44 50 53 46 50 48 46 46 46 46 48 46 45 49 51 54 56 59 60 60 61 62 69 69 72 78 77 75 73 69 66 65 63 61 61 63 67 68 69 68 67
52 52 55 55 54 51 49 49 48 44 48 48 47 47 47 51 55 57 59 60 61 62 61 61 64 68 74 75 74 72 71 69 67 66 64 62 65 63 69 66 65 64 63
50 51 55 53 54 54 52 50 50 50 50 49 48 49 52 53 55 60 58 59 61 64 63 66 67 71 72 72 71 70 58 42 64 55 66 68 71 68 66 63 61 61 57
48 49 52 54 51 52 54 54 53 53 52 52 53 54 57 58 57 58 60 65 65 65 63 67 68 68 61 61 65 54 39 40 51 45 67 69 67 66 66 65 61 59 58

GFSGL_sfc_temp_108.txt.gz
Temp
74 73 71 71 72 71 71 72 73 72 74 74 76 75 69 67 66 65 62 64 62 57 64 70 72 73 71 72 71 69 64 60 56 59 63 63 64 70 71 71 71 70 71
73 72 72 72 70 69 68 69 72 72 74 74 74 74 71 69 65 67 62 59 60 57 63 71 71 75 70 70 69 68 63 60 59 57 60 62 64 70 70 69 70 72 71
73 72 70 69 69 67 67 68 68 69 68 71 73 72 71 67 65 65 65 63 64 65 71 71 71 71 70 69 68 68 67 61 60 63 63 70 69 69 69 69 69 68 71
72 71 68 66 67 67 67 67 68 68 67 66 63 61 71 73 72 69 69 71 71 71 71 72 73 72 71 69 69 68 69 67 65 64 64 65 67 68 67 65 64 66 66
69 68 66 67 67 67 67 67 67 66 65 67 65 60 58 71 78 73 73 71 70 70 71 73 72 68 63 65 69 65 65 65 65 63 62 62 63 63 62 64 63 63 65
67 67 68 68 67 65 65 65 65 66 65 63 65 61 56 58 63 62 69 70 71 70 69 70 72 65 64 61 60 59 62 62 61 60 59 58 59 60 62 63 62 61 60
65 65 66 65 64 64 66 66 64 64 63 61 59 60 58 57 54 58 57 70 69 69 69 69 71 75 68 69 60 59 58 56 57 61 59 59 59 61 61 61 62 62 62
60 61 62 63 62 62 61 62 62 63 62 61 60 59 57 61 55 53 56 67 67 70 69 69 67 68 67 68 66 65 64 64 60 62 60 61 62 63 62 62 61 62 64
58 59 60 59 58 58 58 59 60 62 63 60 61 60 60 62 55 51 53 62 60 63 70 70 69 69 59 55 68 65 64 65 60 56 56 54 52 49 48 58 58 60 59
55 56 58 57 57 56 56 57 58 59 63 65 64 62 61 63 56 51 51 68 63 67 67 65 56 67 53 52 65 65 64 64 66 66 61 58 51 56 47 58 61 60 60
55 56 55 55 55 55 55 57 57 56 58 60 62 63 64 63 63 49 48 67 68 66 67 68 70 52 51 49 54 65 64 65 64 65 64 63 63 64 62 61 63 62 59
52 52 51 52 54 55 54 55 55 56 55 55 58 60 64 65 55 49 46 51 59 67 68 69 69 50 50 47 50 55 49 56 64 62 61 60 61 62 64 64 64 63 63
48 48 49 50 52 53 53 52 53 53 54 54 56 59 60 64 66 51 46 46 48 63 69 65 56 51 48 49 49 51 47 60 62 60 60 60 62 63 65 63 63 63 62
45 45 47 47 49 51 52 52 52 52 52 54 54 56 59 62 64 66 61 55 49 53 58 64 60 54 52 56 53 52 59 63 62 61 61 62 63 63 61 62 60 59 58
42 44 44 45 46 48 49 49 49 52 52 53 54 56 57 58 64 60 61 66 64 60 61 64 64 64 63 63 62 60 60 63 62 62 62 62 62 62 60 61 59 58 57
39 40 41 42 43 44 44 45 44 44 44 44 44 49 58 52 45 44 46 47 45 47 60 62 62 63 65 65 65 65 64 61 64 64 63 64 62 60 59 59 58 58 56
37 38 38 39 39 39 40 41 41 44 42 42 41 41 42 45 42 43 43 42 44 44 62 62 63 63 65 67 67 68 67 67 67 67 67 62 61 60 56 58 58 58 58
38 39 38 38 39 39 40 40 41 40 40 42 42 42 42 41 41 40 43 45 52 51 59 63 63 64 66 68 69 68 68 68 68 66 63 62 61 59 59 59 57 56 57
35 36 37 38 38 39 39 40 41 40 40 40 43 42 41 40 40 38 41 49 51 54 58 61 64 65 66 68 68 69 69 69 67 63 62 61 60 59 58 58 57 45 49
35 35 35 36 36 37 37 37 38 40 40 41 41 43 46 41 43 45 47 50 51 52 55 61 64 65 66 67 68 69 70 66 63 62 61 60 60 60 59 59 58 58 59
36 36 36 37 37 37 37 37 38 38 39 40 42 43 41 45 45 47 49 51 52 54 56 60 65 66 66 67 66 67 67 65 63 62 61 60 60 59 60 58 59 60 60
38 39 41 41 42 41 40 40 40 40 40 40 41 43 36 46 46 47 49 52 54 55 58 60 64 64 67 68 67 67 68 63 62 62 60 60 60 60 59 58 58 58 59
43 43 44 46 49 45 47 46 44 42 42 42 43 44 42 45 47 48 49 53 55 57 59 62 63 65 65 66 68 69 69 63 63 62 61 60 60 59 58 57 59 60 60
53 53 52 53 51 50 49 47 45 41 45 45 45 45 45 47 48 50 53 55 56 58 60 62 62 61 63 62 64 66 65 65 64 63 62 61 60 55 58 59 61 62 58
49 49 52 51 51 51 50 48 48 48 48 48 48 48 48 50 51 53 56 57 58 59 58 59 59 63 62 62 65 66 48 42 61 53 63 62 59 59 61 60 58 57 56
45 46 47 48 49 49 50 50 49 48 47 48 48 48 50 52 54 56 57 57 57 60 60 60 61 62 63 62 62 44 39 39 50 44 62 61 60 61 60 58 57 55 54

GFSGL_sfc_temp_111.txt.gz
Temp
63 63 62 63 63 62 60 61 62 63 65 67 68 68 67 62 60 58 58 61 60 59 58 58 59 61 60 63 64 62 61 58 56 57 58 60 59 61 65 68 70 68 67
64 63 61 63 62 60 60 60 61 61 62 62 61 63 64 64 63 61 60 63 62 59 59 59 60 63 61 63 66 61 60 58 56 56 55 57 58 60 64 65 67 70 68
64 61 60 59 58 59 59 59 59 61 63 61 60 60 60 62 64 64 63 62 61 60 60 60 61 62 63 65 66 62 60 60 56 56 56 59 60 62 63 64 64 64 67
62 60 59 58 58 57 58 59 58 60 61 59 60 61 60 59 65 64 63 59 60 62 62 62 63 64 64 66 64 64 61 58 56 57 57 59 60 61 60 59 59 61 63
58 57 57 57 58 58 58 58 58 57 60 63 61 60 59 58 62 56 56 60 60 61 62 64 64 65 66 65 67 63 62 60 57 56 55 55 55 55 56 58 58 59 61
56 57 58 58 58 57 56 55 55 56 57 58 59 58 57 60 52 50 55 56 58 62 64 65 65 62 61 59 59 60 63 60 56 55 53 52 52 53 54 55 56 56 56
55 57 58 57 57 55 56 55 54 54 56 57 57 55 54 54 51 50 51 56 56 60 62 63 64 68 62 62 57 57 56 55 57 56 54 54 54 55 56 55 55 55 56
55 57 58 58 57 57 56 54 54 55 55 56 57 57 54 56 50 48 51 57 56 57 63 62 62 61 61 63 59 58 58 57 57 59 57 57 57 58 58 57 55 55 57
54 55 56 57 56 56 54 53 54 54 54 53 54 58 54 54 49 47 51 55 55 57 63 64 63 61 56 54 61 59 58 58 56 54 54 52 52 50 51 54 52 54 58
50 54 55 56 56 55 55 53 53 53 54 56 56 55 56 55 51 47 49 58 56 56 58 60 54 56 51 49 61 59 57 58 59 57 55 52 50 54 45 54 55 55 56
50 50 51 52 53 54 54 54 54 52 53 52 54 57 54 55 57 48 47 57 59 57 56 57 57 52 49 48 50 61 61 58 57 58 56 55 57 57 56 54 56 57 55
44 46 48 50 51 53 52 52 53 53 52 51 51 55 57 55 53 50 45 48 54 59 59 63 60 49 51 47 48 52 49 55 59 57 55 55 55 55 57 57 59 59 59
43 43 46 47 49 50 49 49 49 50 51 52 50 51 54 56 55 53 47 45 47 54 59 58 54 49 47 45 46 47 48 56 56 55 54 54 54 57 57 58 58 59 59
39 40 42 43 45 47 48 48 48 49 49 51 51 50 50 53 54 58 58 49 46 49 52 53 54 52 51 52 49 49 53 55 57 55 54 54 55 55 55 56 56 55 54
37 39 40 42 43 44 46 46 47 50 50 50 51 53 51 50 52 45 51 60 53 52 52 54 53 53 54 53 53 52 53 55 56 54 54 54 55 55 54 55 55 54 54
36 37 38 38 39 39 40 41 44 43 44 43 42 45 55 49 43 43 44 42 42 43 53 54 55 53 53 55 55 54 54 55 57 55 54 54 54 54 54 55 54 53 52
36 36 37 38 38 37 38 39 37 41 42 42 42 41 40 43 40 42 44 43 43 43 50 55 53 54 55 56 58 57 55 57 60 59 59 55 54 56 51 54 53 54 54
33 36 36 36 37 38 38 38 39 38 38 41 41 41 41 41 40 41 43 45 49 46 48 52 54 55 55 56 56 59 59 59 59 58 55 56 57 56 54 54 54 54 55
33 34 35 35 36 37 38 38 38 39 39 40 42 40 40 39 39 38 41 47 48 50 47 50 54 56 55 58 57 59 61 60 60 55 56 57 57 55 54 54 55 46 47
34 35 35 35 35 36 37 37 37 38 38 40 40 41 43 40 41 42 41 47 49 50 48 49 53 55 58 57 59 60 57 56 55 55 56 57 56 55 55 56 56 55 55
36 37 36 37 36 37 37 36 37 37 37 38 40 42 39 43 43 43 44 46 49 51 51 53 56 60 61 63 56 61 56 55 56 57 56 56 56 56 57 57 57 57 57
37 39 40 40 41 40 39 39 38 38 38 38 40 41 36 43 45 45 47 48 48 50 54 54 56 58 61 61 60 57 56 54 55 56 55 56 57 57 57 57 57 57 56
43 49 46 46 48 44 45 44 43 39 40 41 42 42 41 42 45 46 47 50 51 50 53 55 55 57 59 59 58 59 56 55 56 57 58 58 57 57 57 56 56 55 57
46 47 49 49 49 48 47 45 42 40 42 43 43 44 43 43 45 47 48 49 50 50 52 55 55 57 57 57 55 56 57 57 59 60 60 59 58 52 57 56 56 57 54
43 45 45 46 47 47 48 47 46 45 45 45 45 45 45 46 47 48 49 50 50 52 51 53 52 56 57 56 59 58 52 41 59 51 59 59 58 57 57 57 55 54 52
39 41 43 44 44 45 45 46 47 47 46 46 46 46 47 48 49 49 50 51 50 52 52 52 52 54 55 58 56 43 40 40 49 43 59 58 57 57 56 55 54 52 51

GFSGL_sfc_temp_114.txt.gz
Temp
60 60 60 60 60 60 58 58 58 58 59 60 61 61 61 61 62 60 60 62 59 58 59 59 59 59 58 58 58 61 61 58 55 60 58 59 59 61 63 62 65 64 65
61 60 60 59 59 58 58 58 58 57 58 59 60 60 61 62 60 59 59 60 59 58 59 58 59 61 58 60 60 61 61 60 59 58 56 57 57 58 59 60 64 67 65
59 59 58 57 56 56 57 57 57 57 58 58 59 59 60 61 59 62 61 60 59 60 59 59 60 60 59 62 58 61 60 60 59 58 57 56 56 57 58 60 61 62 65
57 56 55 54 54 55 55 56 56 57 56 57 57 58 59 59 59 61 63 61 60 60 60 60 61 61 60 58 59 62 60 58 57 57 56 55 56 58 58 58 58 59 60
54 54 53 54 54 54 54 54 54 54 55 56 56 57 57 58 61 57 57 58 58 57 58 59 60 61 61 59 62 59 59 58 56 56 56 53 54 54 54 56 56 56 58
52 52 54 54 54 54 53 53 53 53 53 53 54 55 54 59 55 53 53 55 57 57 57 60 60 59 60 58 58 57 60 58 56 56 54 54 52 53 53 53 54 53 52
52 54 55 56 56 56 56 54 52 50 52 50 50 52 52 53 50 49 49 54 56 56 54 56 59 63 59 63 56 55 56 55 59 58 54 53 52 53 53 52 53 53 53
49 51 54 54 55 56 56 55 54 49 48 48 49 50 49 54 50 48 48 52 55 55 56 56 58 60 59 59 58 57 58 58 56 58 56 55 56 55 56 55 53 52 53
48 49 50 52 51 52 54 54 54 49 48 47 49 50 50 52 49 48 47 52 54 54 58 58 58 59 52 50 60 58 55 55 54 53 52 50 50 48 53 52 51 51 51
47 48 49 48 48 50 52 53 54 50 52 51 51 50 51 52 50 46 47 54 52 54 55 57 51 56 48 49 58 55 54 55 57 55 53 51 50 51 45 53 52 52 51
47 46 46 47 46 47 47 49 51 52 52 50 49 50 52 50 51 46 45 56 55 55 55 56 58 47 47 47 51 56 58 56 54 56 55 53 53 54 54 50 51 54 53
43 42 42 43 46 47 46 48 50 50 50 50 50 51 53 50 49 47 44 46 51 56 56 56 57 48 45 46 48 49 48 52 56 54 53 53 52 52 55 54 54 55 57
40 39 40 42 44 45 43 45 47 48 48 48 49 49 51 52 53 48 44 43 45 54 58 54 52 49 45 44 45 45 45 55 54 53 53 52 52 55 55 55 56 56 56
37 38 39 39 40 42 44 45 45 45 45 47 47 48 51 51 47 52 50 48 45 48 50 53 53 53 49 50 49 48 52 54 56 59 54 55 52 53 53 54 55 54 53
36 37 37 38 38 39 41 42 44 47 46 46 47 50 50 50 48 48 48 52 53 51 50 54 52 51 50 51 50 51 52 54 55 54 52 51 53 53 52 53 53 52 54
34 34 35 36 37 37 37 38 41 41 41 41 41 45 51 45 42 41 41 40 41 43 49 51 53 53 53 52 53 52 52 52 56 56 55 54 53 52 52 52 53 52 51
33 34 34 35 36 36 37 37 36 40 41 41 39 39 40 43 41 41 42 43 42 45 50 51 53 54 55 55 56 54 52 55 56 56 57 54 53 52 48 52 52 52 52
33 34 33 34 34 35 36 37 38 37 37 39 40 40 40 40 40 40 41 43 45 46 48 50 50 54 56 56 56 56 55 53 54 54 52 53 53 52 51 52 52 52 52
33 33 34 35 35 35 36 36 37 37 38 38 40 40 39 39 39 38 40 46 47 48 46 49 50 52 55 56 56 58 58 55 54 52 52 53 52 52 52 52 52 45 49
34 35 36 36 36 35 35 35 36 37 37 38 39 40 42 39 40 40 43 45 45 49 50 49 48 50 54 56 55 56 56 52 53 53 53 53 53 53 53 52 52 51 52
34 35 36 37 37 37 36 36 36 37 36 37 38 41 38 42 42 43 43 43 45 49 50 51 52 51 53 56 56 54 54 54 53 54 56 54 53 53 53 53 54 54 55
35 39 45 42 42 41 39 39 38 37 37 37 38 39 35 42 43 44 44 44 46 50 52 52 53 52 53 55 55 53 53 53 53 57 56 54 54 53 54 55 56 55 55
40 45 46 48 48 43 45 43 42 39 38 38 39 40 40 42 43 45 43 45 46 48 52 53 50 50 54 54 56 54 54 53 54 56 54 53 54 55 56 56 56 55 55
40 42 44 45 46 47 46 43 41 38 41 41 41 42 42 43 43 46 47 46 47 48 51 53 49 51 52 56 54 57 55 56 56 56 56 55 55 52 56 55 55 55 55
38 39 40 41 42 43 44 47 44 43 44 44 43 44 43 43 45 47 48 49 50 49 49 51 51 52 53 54 55 58 50 37 53 47 56 57 57 56 56 55 55 53 51
36 37 37 38 38 40 41 42 45 46 45 45 44 44 45 45 46 47 47 48 49 49 48 49 48 52 55 56 55 42 37 36 42 40 57 57 56 56 56 53 53 52 51

GFSGL_sfc_temp_117.txt.gz
Temp
60 58 58 58 59 58 56 57 57 56 57 58 60 59 58 58 58 57 58 59 60 60 59 59 61 62 60 58 58 57 56 56 55 56 59 60 61 61 63 63 63 62 63
57 57 55 55 56 55 56 56 56 56 56 58 58 58 58 59 57 56 57 59 59 59 59 58 59 62 58 57 56 56 57 60 57 55 58 57 59 59 60 59 62 64 63
56 55 54 53 53 53 53 54 54 55 55 55 56 57 58 58 57 57 58 59 60 59 59 59 59 58 57 57 57 57 59 61 59 58 58 56 58 58 58 58 59 60 62
55 53 53 53 53 52 52 53 53 54 53 53 54 56 57 57 58 57 58 57 59 60 59 60 59 59 58 56 57 58 59 58 58 57 56 56 57 57 57 56 56 57 58
53 52 51 52 52 52 53 53 53 52 53 54 54 54 55 56 59 55 55 56 56 58 59 61 61 61 60 58 57 57 59 58 56 56 55 55 55 56 55 55 54 54 55
49 51 53 52 52 51 51 51 51 52 51 51 51 53 52 56 53 52 53 53 55 56 56 59 58 58 57 55 57 58 60 58 56 56 55 56 56 55 53 53 52 51 49
47 50 51 52 52 52 53 53 51 51 51 51 49 50 50 51 49 49 51 52 53 54 55 56 56 60 57 59 54 55 54 54 55 59 55 54 55 55 54 51 51 51 51
47 49 50 51 50 51 51 51 51 53 54 55 55 50 49 51 49 47 49 50 51 53 55 55 54 55 56 59 59 57 57 58 57 58 62 58 57 56 56 56 53 51 52
48 49 49 49 47 48 48 46 47 49 52 54 54 51 49 51 48 47 47 49 50 51 54 55 55 55 52 48 59 57 57 57 53 51 53 50 49 49 53 53 51 50 49
47 48 48 46 47 45 45 46 47 48 50 53 53 52 51 49 46 46 47 50 49 51 53 54 51 53 48 46 57 56 53 53 54 51 51 49 48 47 48 55 51 51 50
46 46 45 45 44 44 44 44 45 46 48 49 51 53 51 50 47 46 46 49 51 52 52 53 56 47 46 45 48 56 56 53 52 54 53 52 52 52 51 49 51 52 50
43 42 41 42 43 43 41 43 44 45 45 46 47 47 51 53 49 47 45 45 48 51 53 53 55 46 45 44 47 47 46 51 54 52 52 51 51 51 53 52 51 51 53
40 39 38 39 40 40 38 39 41 43 42 45 46 47 49 53 53 47 45 45 45 46 54 52 49 44 44 45 45 44 46 53 52 51 51 51 52 53 53 53 54 53 53
37 37 37 36 35 37 38 39 39 40 41 44 45 46 47 49 51 51 48 49 45 46 50 53 50 47 48 48 47 47 52 54 53 53 52 51 51 52 52 52 53 53 53
35 35 34 35 35 36 37 37 38 40 40 42 45 47 45 46 50 49 47 49 50 50 50 52 53 54 53 48 49 49 49 52 53 53 52 51 51 51 51 51 51 51 54
32 33 34 34 35 36 36 37 39 38 39 40 39 39 43 42 44 43 43 43 43 42 51 51 51 53 53 51 51 50 49 50 52 52 51 51 51 51 51 50 51 51 52
31 32 33 33 33 33 34 35 35 38 40 39 39 39 39 40 39 39 39 40 39 42 49 51 51 53 53 53 53 53 51 53 54 53 52 51 51 50 47 50 50 51 52
31 33 33 33 33 34 34 34 35 35 36 37 39 39 38 39 39 39 40 43 46 44 45 50 53 54 53 53 53 53 52 51 52 53 51 51 51 50 49 50 50 50 50
32 33 34 35 35 35 35 35 35 36 36 37 38 38 38 38 38 39 40 45 45 46 43 46 48 51 53 54 55 55 54 52 52 51 50 50 50 49 50 50 50 44 45
32 33 34 35 36 36 36 35 35 35 36 37 38 38 41 38 38 38 41 44 45 46 45 44 46 47 51 53 53 56 55 52 51 51 50 50 50 51 50 51 50 52 53
32 34 35 37 40 38 38 37 36 36 35 36 37 39 37 40 41 42 41 42 44 47 46 49 46 47 48 51 52 52 54 53 52 51 51 51 51 51 51 52 51 51 51
33 36 40 45 46 45 42 40 39 37 37 37 38 39 35 40 43 43 44 44 46 46 47 51 47 51 50 49 51 51 51 51 51 52 52 52 52 52 51 51 52 51 53
36 39 41 43 44 42 45 42 40 39 38 38 38 39 38 41 42 43 45 46 47 47 48 52 51 50 51 50 51 52 52 51 53 53 53 53 53 52 53 53 53 53 52
37 38 38 40 41 41 43 42 41 38 40 40 40 41 40 42 43 44 45 43 45 46 48 52 52 53 50 51 50 51 53 53 53 55 55 53 52 49 53 53 54 54 52
35 36 36 37 37 38 40 42 44 43 42 43 42 43 42 43 44 45 46 45 44 45 47 51 51 51 50 54 52 53 45 37 52 45 54 54 54 53 54 54 54 53 50
33 34 35 35 35 36 37 38 40 43 44 44 43 43 43 43 44 46 46 47 47 45 46 50 50 51 50 53 55 43 36 35 42 39 53 54 54 54 54 54 53 51 50

GFSGL_sfc_temp_123.txt.gz
Temp
68 68 68 68 69 69 68 69 68 68 69 69 70 71 70 70 71 70 70 71 70 70 70 70 69 70 71 73 70 68 62 61 59 68 76 77 72 72 74 76 75 75 77
68 68 67 67 67 66 66 68 67 67 68 68 69 69 69 70 69 68 69 71 70 69 70 71 70 73 69 69 71 67 63 63 60 58 68 73 72 72 72 72 74 77 79
67 67 65 65 65 64 65 65 66 66 67 68 69 68 69 69 68 68 68 69 69 70 70 70 70 70 68 70 69 64 62 64 61 59 62 73 74 74 73 71 71 73 77
65 65 63 62 63 63 63 63 64 65 65 66 67 67 68 69 69 69 69 68 68 69 69 69 70 69 68 68 68 67 64 61 61 60 60 66 70 72 72 72 70 73 73
62 62 61 61 62 62 61 62 62 62 63 64 64 65 65 66 68 67 67 67 67 67 68 69 69 68 64 65 69 67 62 60 59 59 59 62 63 69 69 73 70 71 72
60 60 61 61 61 60 59 59 59 59 59 60 60 61 61 64 57 53 59 65 66 66 65 67 68 63 62 56 56 56 61 60 58 58 59 59 61 70 73 72 73 71 69
58 59 60 60 59 58 59 58 57 56 56 56 56 57 57 59 52 49 51 62 63 63 64 64 66 69 63 67 59 54 54 52 55 60 60 64 67 70 70 68 68 71 73
57 58 58 58 57 57 56 54 54 54 52 53 53 54 55 57 49 47 48 54 59 61 62 62 62 62 63 63 65 66 63 61 59 63 61 66 70 69 66 65 61 65 69
55 55 56 56 54 53 51 50 51 50 49 48 49 49 49 52 48 45 47 52 54 57 61 61 61 62 55 48 62 62 63 61 56 52 53 52 50 50 57 63 64 62 67
53 52 52 51 49 48 44 44 46 45 44 46 46 47 47 48 47 45 46 51 51 56 59 60 52 56 49 46 58 61 61 62 60 60 60 53 53 55 50 66 69 70 70
50 49 49 47 42 43 42 42 41 41 41 40 41 42 45 47 48 45 45 49 51 53 56 60 63 48 45 43 44 60 60 64 61 61 58 59 61 56 59 69 71 74 71
47 45 42 40 41 41 38 38 38 38 37 37 38 40 46 46 45 46 44 44 49 52 55 61 61 48 42 42 43 47 45 48 62 60 57 57 60 63 67 67 68 71 72
43 39 38 39 39 39 38 37 36 37 36 36 38 39 42 46 43 45 44 43 43 48 56 56 47 45 43 43 42 44 43 53 57 56 54 57 67 71 69 65 66 68 68
36 36 36 36 36 38 38 37 36 36 36 37 38 39 41 45 44 46 48 49 45 48 50 55 53 49 45 49 49 47 51 55 54 56 55 63 69 67 68 68 68 68 70
35 35 34 35 34 35 36 36 36 39 38 37 38 39 38 40 43 40 39 45 49 52 54 57 52 54 50 51 53 52 54 57 58 57 63 67 68 69 68 69 71 70 69
32 32 32 33 33 34 34 34 38 38 38 38 38 38 40 40 39 39 39 38 38 39 48 52 51 52 51 53 54 53 54 54 60 64 66 70 70 69 68 69 71 69 67
31 31 32 32 33 33 34 34 34 38 39 38 38 37 38 38 38 38 38 38 37 38 46 54 52 57 52 54 56 55 53 56 61 65 64 71 72 71 66 68 69 69 69
31 33 32 32 33 33 34 35 35 35 35 37 38 37 38 37 37 37 37 38 44 42 54 53 53 59 53 55 57 56 57 59 64 70 70 71 71 68 68 68 69 69 69
31 31 32 33 33 34 35 36 36 36 36 36 38 38 38 37 37 37 37 40 44 51 54 55 58 55 54 56 56 61 63 64 67 69 69 69 70 69 69 70 70 52 56
31 32 33 34 35 36 39 42 42 39 38 37 37 37 39 38 39 39 40 42 43 47 56 58 58 57 55 56 57 61 66 62 66 69 69 69 69 71 70 70 70 66 67
31 33 33 36 39 40 41 40 42 40 39 37 37 38 35 40 40 40 42 44 44 47 54 60 63 61 60 56 57 60 67 68 70 70 69 69 69 69 71 71 70 70 70
32 34 36 37 38 39 38 40 43 40 39 38 38 39 34 40 41 41 43 46 46 48 54 61 62 59 59 56 60 63 67 68 69 71 70 69 69 70 70 70 70 69 67
33 35 35 36 37 36 38 39 40 42 40 39 39 39 39 41 41 43 44 52 50 50 51 59 56 63 56 52 58 66 69 69 70 71 70 69 69 69 69 69 70 68 67
33 33 34 34 35 35 36 36 38 38 41 41 40 40 41 42 44 43 46 52 54 55 51 52 53 62 61 57 61 68 67 71 72 71 71 71 70 62 70 70 70 69 67
32 32 32 33 33 33 33 34 36 36 37 40 42 42 43 44 45 46 47 51 57 54 54 53 54 60 58 60 64 64 54 40 61 55 71 71 70 69 71 71 69 68 63
30 30 31 32 31 32 32 32 33 35 35 37 39 43 43 48 46 47 48 49 54 57 59 58 56 60 60 61 62 45 36 36 50 39 69 70 70 70 71 70 68 67 63

GFSGL_sfc_temp_129.txt.gz
Temp
78 78 77 77 78 77 76 76 77 76 76 76 77 77 78 78 78 76 75 77 77 76 75 75 75 75 78 79 79 80 79 78 73 77 80 79 76 77 79 76 78 78 81
79 78 77 76 76 74 74 75 75 75 76 76 77 77 78 78 78 76 75 76 75 74 75 75 75 79 73 73 76 72 74 75 74 68 73 75 74 75 76 75 79 83 83
78 77 76 74 74 72 72 72 73 73 74 75 75 75 76 77 77 77 77 77 76 75 75 74 74 73 71 74 74 75 77 77 76 74 73 77 77 76 74 75 76 76 80
76 75 73 72 72 72 71 71 71 72 72 72 72 73 74 75 76 76 76 75 75 76 75 75 74 73 72 71 71 71 72 72 72 72 72 73 74 75 74 73 73 75 77
74 73 71 72 72 72 71 71 71 70 70 71 70 71 71 72 74 72 72 72 70 71 72 74 74 72 68 69 73 71 70 69 72 72 72 73 73 71 70 74 69 69 74
72 71 72 72 72 71 70 70 69 69 69 68 68 68 68 70 59 51 54 62 63 65 65 68 70 67 68 59 59 61 66 67 66 69 70 69 67 67 70 68 67 65 63
70 70 71 71 70 70 70 69 67 66 66 65 65 65 63 62 53 50 50 58 57 58 60 62 64 70 66 71 63 57 58 57 58 66 64 65 66 67 66 64 65 65 65
68 69 70 70 69 68 67 65 64 64 61 59 57 57 56 55 47 46 46 47 47 49 51 54 56 58 60 61 63 63 66 65 61 65 66 66 68 69 67 65 64 62 62
66 67 68 68 65 64 62 60 58 55 54 54 53 48 45 47 46 44 44 45 45 46 48 49 50 52 51 47 53 53 57 61 58 52 52 54 53 52 54 65 62 57 58
65 65 65 64 61 57 54 52 52 51 48 45 45 46 48 49 47 45 45 47 44 44 45 47 47 47 45 45 49 51 52 56 56 58 63 60 53 61 48 61 62 56 59
62 61 58 56 52 51 50 48 44 41 40 40 42 44 46 48 48 44 43 44 43 44 44 44 46 45 44 44 45 50 51 59 58 59 64 67 69 68 67 67 65 62 57
54 52 50 50 49 45 40 39 40 39 38 38 39 41 45 47 46 45 42 42 45 43 44 46 47 44 42 42 44 47 45 47 60 62 63 62 64 63 65 65 65 61 62
48 46 46 42 39 39 39 39 38 38 37 38 40 40 41 45 49 45 43 42 42 43 47 46 43 43 42 44 42 44 43 58 60 59 61 62 60 63 64 63 62 61 64
43 42 37 37 39 40 41 39 38 37 38 38 39 39 41 44 46 46 46 47 43 43 43 44 44 45 44 47 49 48 58 60 59 60 60 63 62 60 63 63 57 56 56
35 35 37 37 37 38 39 39 38 39 38 37 38 39 38 39 43 42 42 42 41 40 39 43 46 47 49 54 58 60 59 57 53 55 58 61 58 61 62 60 59 54 54
34 36 35 34 35 36 36 36 39 39 39 38 38 37 39 39 39 39 39 39 38 38 39 41 46 50 53 56 56 59 59 52 54 57 58 60 60 62 58 56 57 56 55
31 32 33 34 34 35 35 34 33 38 40 40 39 38 38 38 38 38 38 37 37 37 39 44 49 53 56 54 58 61 60 59 60 59 61 60 60 60 53 55 56 58 58
32 34 32 33 34 35 35 35 35 35 36 38 41 40 39 38 37 37 36 36 38 40 40 45 52 55 55 55 55 57 62 60 59 59 57 59 59 58 58 61 61 64 65
32 32 34 34 34 35 35 36 38 39 40 41 43 41 39 38 37 37 37 38 40 45 50 49 52 54 55 60 61 63 62 57 59 58 58 60 59 61 64 66 65 54 55
33 33 34 35 35 36 38 39 39 39 39 40 41 40 41 40 39 39 39 39 44 49 47 50 57 56 55 60 58 58 57 58 56 58 62 60 61 62 62 61 63 72 73
34 35 34 36 37 38 38 37 38 38 38 38 41 42 34 39 40 41 41 44 49 49 55 55 56 56 55 55 55 56 55 56 59 58 57 57 62 60 63 69 69 73 73
34 34 34 35 37 38 37 37 37 37 37 38 40 43 35 45 42 44 44 47 49 53 54 54 57 57 56 55 56 57 57 58 60 57 55 57 63 68 72 75 66 69 68
34 34 33 33 35 35 35 35 36 36 36 37 38 41 43 45 45 44 48 49 52 56 54 53 59 58 57 56 58 58 58 64 63 65 61 70 75 73 73 62 71 70 67
34 34 33 32 32 33 33 33 33 34 34 36 37 38 43 45 47 45 48 51 54 50 53 55 58 61 62 59 59 59 58 59 59 58 62 76 76 71 75 71 70 70 68
34 33 33 32 31 32 32 32 33 33 34 34 35 37 39 48 47 47 49 51 53 52 53 56 57 61 63 64 65 62 46 38 52 45 65 78 77 76 75 73 69 66 69
33 33 32 31 30 31 31 31 31 32 32 33 34 35 37 41 48 49 50 52 55 55 57 60 62 63 65 66 59 43 37 38 45 39 55 77 77 77 76 74 71 68 71

GFSGL_sfc_temp_132.txt.gz
Temp
76 76 75 73 73 72 70 71 71 71 71 71 72 71 70 70 70 70 70 71 70 69 69 69 68 68 70 70 68 68 67 66 63 63 65 67 67 67 69 69 70 69 71
77 75 74 73 72 70 70 70 70 69 70 70 71 71 72 72 70 70 70 72 70 69 69 68 69 73 68 68 69 67 68 66 65 62 64 66 65 66 67 67 70 76 73
76 74 72 71 70 69 68 69 69 69 68 69 69 69 69 70 69 69 70 70 70 69 69 68 68 67 65 67 67 67 68 69 67 65 64 63 63 64 65 66 66 66 73
74 72 70 68 68 67 67 67 67 68 67 67 67 68 69 69 69 69 68 66 66 67 67 67 68 68 66 65 65 65 65 64 66 65 65 65 65 66 65 65 61 65 67
71 70 68 68 68 68 67 67 67 66 67 67 67 66 66 67 69 65 62 59 59 60 61 63 63 63 62 61 63 64 63 61 62 63 63 64 64 64 62 61 60 62 65
69 69 69 68 68 67 66 66 65 65 65 65 64 64 62 66 57 49 50 53 55 56 56 58 60 60 61 58 58 58 62 60 60 60 62 61 60 59 60 59 58 57 57
68 69 69 68 67 66 67 65 63 61 60 60 60 60 59 58 50 45 47 50 49 51 51 52 54 60 57 59 58 56 56 53 56 62 59 60 60 62 59 57 57 56 58
67 67 67 67 66 65 62 61 58 58 55 54 54 54 54 54 47 45 46 46 46 49 49 50 49 50 52 52 54 54 56 57 57 60 59 61 63 62 60 60 58 58 60
65 65 66 65 62 60 57 53 52 52 52 51 51 50 47 45 46 43 44 45 47 47 49 49 49 49 48 45 48 48 50 52 55 53 51 51 50 49 52 57 57 54 54
63 63 61 58 56 53 51 50 50 49 46 45 44 44 43 42 44 43 44 46 45 46 47 48 47 47 44 43 45 46 45 47 50 53 57 53 52 55 50 55 59 54 54
58 56 55 53 51 50 48 46 42 40 40 40 42 42 43 44 43 43 43 44 45 44 44 45 47 44 43 42 43 44 44 48 49 50 53 54 57 59 61 58 59 58 56
53 51 50 49 48 45 39 38 40 40 40 40 39 40 42 45 45 44 43 42 44 43 43 46 47 43 42 41 41 43 41 43 46 48 51 53 55 58 61 59 60 60 61
47 46 45 43 38 38 37 39 38 40 38 38 38 38 40 44 45 44 43 42 42 42 45 45 42 41 42 41 42 42 42 44 46 46 49 54 57 59 59 58 60 61 61
42 41 37 35 37 40 40 39 39 39 38 37 37 38 39 42 43 45 46 45 44 44 44 42 42 41 42 44 44 45 46 47 48 49 54 56 56 56 56 57 57 58 58
38 35 34 37 36 36 37 37 38 40 38 36 37 37 36 36 40 42 40 41 42 41 39 40 40 42 44 44 45 47 49 50 52 55 55 54 54 56 56 58 58 55 54
32 32 33 33 34 34 35 36 40 39 39 39 38 37 39 39 39 39 39 38 38 38 37 37 38 40 45 46 47 50 52 52 54 54 54 53 53 55 55 57 57 54 53
31 31 32 33 33 33 33 34 33 38 40 40 39 38 38 38 38 38 38 37 36 36 36 37 38 42 47 48 51 53 53 56 57 56 54 54 55 56 53 56 55 55 54
32 34 32 33 33 33 33 34 35 35 35 38 41 40 40 39 38 37 37 36 36 36 37 38 40 45 49 50 52 53 55 55 54 56 55 56 56 56 55 55 55 55 55
32 32 33 34 34 35 35 36 37 38 38 38 40 41 40 40 38 38 37 37 37 38 41 43 45 48 49 51 51 53 57 57 57 57 56 56 57 57 56 56 56 47 50
33 34 34 34 34 35 37 38 37 36 37 37 38 38 43 41 40 40 39 39 39 42 46 49 49 48 49 53 54 56 56 55 56 57 57 57 58 59 56 56 56 56 57
33 34 33 34 34 35 37 35 36 35 35 36 36 39 35 39 40 40 41 41 43 46 48 49 49 53 54 54 56 56 56 56 57 58 57 57 58 58 59 57 57 57 58
33 33 34 33 34 34 33 34 34 34 34 34 36 38 36 41 44 43 44 45 47 49 51 50 52 52 54 54 54 56 56 56 56 58 58 58 58 57 57 56 56 55 57
33 33 34 33 33 33 33 34 33 33 33 34 34 36 38 42 44 45 47 49 50 50 51 50 52 54 54 54 55 56 55 56 57 58 57 56 56 57 57 56 57 61 59
33 34 33 32 31 31 31 31 32 32 33 33 33 35 36 39 45 47 48 52 51 52 50 50 53 54 55 54 56 55 53 54 56 58 58 56 56 55 58 61 60 64 61
33 33 33 31 30 30 30 30 31 31 31 32 32 33 35 37 40 45 48 52 53 50 50 52 55 55 57 56 54 53 40 37 50 41 56 56 56 56 62 62 61 63 62
34 33 33 32 31 31 30 30 30 30 30 31 31 32 33 35 37 40 45 51 52 53 52 53 56 59 60 54 51 40 38 37 45 39 45 52 58 69 67 66 64 63 63

GFSGL_sfc_temp_135.txt.gz
Temp
66 65 64 64 64 63 62 61 61 61 62 62 63 63 63 63 64 63 62 63 64 62 61 63 62 61 60 60 60 61 61 58 61 61 60 61 61 62 64 63 65 65 65
65 63 62 62 62 60 60 61 61 60 61 62 62 62 63 63 61 61 61 63 63 63 64 62 61 67 63 59 58 60 60 58 56 61 58 58 61 62 62 62 66 71 66
64 63 61 60 60 59 59 60 60 60 60 60 61 60 61 61 61 60 60 61 60 60 60 60 62 62 61 62 64 62 59 60 60 61 62 63 63 59 59 59 60 61 68
63 61 59 58 58 58 58 58 58 59 59 58 59 60 61 61 62 61 62 58 54 55 56 56 56 56 56 54 58 58 60 59 60 60 61 57 57 58 57 58 58 58 60
61 60 58 58 58 58 58 57 58 57 59 58 58 57 57 58 63 52 51 50 50 50 52 55 56 57 58 56 56 54 55 56 57 57 58 61 61 54 54 55 55 59 56
59 58 59 59 59 57 56 56 55 54 54 53 53 53 52 58 46 48 47 44 47 47 48 51 52 54 55 54 54 54 52 52 50 52 56 57 59 54 55 55 54 53 51
58 60 60 59 58 56 55 53 50 48 48 47 48 49 48 48 49 45 47 45 44 45 45 46 49 54 53 54 53 53 53 52 51 51 49 52 54 54 54 52 52 52 51
57 58 59 58 54 52 49 47 46 47 47 47 47 48 46 48 47 44 45 44 45 46 47 48 49 49 49 49 50 49 50 53 54 56 52 52 52 56 56 59 54 52 53
56 54 52 52 49 47 45 44 45 45 44 43 43 43 44 45 45 44 43 42 43 45 47 49 49 47 47 44 47 47 47 48 51 50 49 48 48 47 49 54 51 52 51
50 50 50 48 46 44 43 42 39 39 41 44 43 43 42 42 43 43 43 43 41 43 46 47 47 47 44 43 45 45 43 45 47 50 51 51 50 52 49 52 52 50 52
48 48 46 43 41 41 39 38 40 39 38 39 41 42 43 44 43 42 42 42 42 42 43 45 47 44 43 42 42 44 43 46 46 45 46 48 51 54 58 55 55 56 51
43 43 41 40 39 39 37 37 38 39 39 39 39 40 42 43 44 43 42 42 43 42 42 45 45 43 42 41 41 42 41 42 43 43 43 45 47 50 57 59 56 55 55
39 38 38 36 36 37 36 37 38 38 37 38 39 38 39 42 43 43 42 41 42 42 44 44 42 41 40 41 42 41 41 42 42 42 43 45 49 54 55 55 57 57 57
35 34 33 33 35 37 37 37 36 36 36 37 37 37 38 39 40 41 43 43 43 43 44 42 41 41 41 42 43 43 43 43 43 44 45 48 50 52 52 52 54 53 52
32 31 32 34 34 34 36 36 36 38 37 35 36 36 36 35 38 40 39 39 40 40 40 39 38 39 39 41 44 44 45 46 46 47 47 48 50 51 52 54 53 53 54
30 32 32 32 33 34 33 34 38 38 39 38 38 37 38 38 38 38 38 38 38 38 37 36 36 37 38 40 43 46 47 47 48 49 49 49 51 51 51 53 53 54 54
30 31 32 33 33 32 32 32 32 37 39 39 38 38 39 38 39 38 38 37 36 36 36 36 36 37 39 42 44 47 48 49 50 50 51 50 50 52 49 52 53 53 51
32 34 32 32 33 33 33 34 34 34 35 38 40 39 39 39 38 38 37 37 36 36 36 36 37 39 41 42 45 48 51 52 52 52 51 51 52 53 52 54 53 51 50
31 32 33 34 34 34 34 35 36 37 35 36 38 39 39 39 39 39 38 37 37 37 38 39 40 41 43 45 47 49 50 50 52 50 51 52 53 53 53 54 52 44 47
32 34 34 33 33 33 34 34 34 34 34 34 35 35 37 37 38 40 41 39 39 39 40 42 44 45 46 48 47 48 50 52 50 51 51 52 54 54 52 52 53 51 52
32 33 33 34 33 33 33 33 33 33 33 33 34 36 34 35 39 41 41 41 41 42 44 46 47 48 49 50 52 52 52 52 51 52 53 54 53 54 54 54 54 54 54
32 33 34 32 32 32 32 33 32 32 32 32 33 35 35 38 39 42 43 44 45 46 48 48 49 48 49 52 53 53 53 52 52 53 54 55 54 55 55 55 55 56 55
33 33 33 32 32 32 31 32 31 31 31 32 32 33 34 36 38 40 44 47 47 47 48 49 49 49 51 53 55 54 54 54 53 55 55 56 55 55 55 54 55 54 54
34 33 33 32 32 31 31 31 31 30 30 31 31 32 33 34 36 38 41 45 48 49 48 49 49 49 51 52 52 51 48 54 56 56 56 55 55 53 55 56 55 55 56
35 34 33 32 32 31 31 31 31 30 30 30 30 31 32 34 34 36 38 41 44 48 50 52 51 53 53 53 51 49 39 37 48 43 55 56 55 56 56 55 55 57 55
35 34 33 33 32 32 31 31 31 31 30 30 30 30 31 32 33 34 36 38 40 45 50 52 54 56 54 54 49 38 36 37 42 39 52 54 54 53 54 55 57 57 53

GFSGL_sfc_temp_138.txt.gz
Temp
61 60 61 60 60 59 59 58 58 58 58 59 60 59 60 60 60 58 57 59 60 59 60 60 60 60 59 59 58 57 57 55 57 62 58 59 59 60 63 62 63 62 63
60 60 58 58 58 57 57 58 58 58 58 58 59 59 60 59 57 56 57 58 58 57 57 57 58 62 58 58 57 58 57 58 56 60 56 56 58 60 59 59 63 67 64
60 58 56 56 56 55 55 56 56 56 57 56 57 57 58 58 58 57 57 57 55 54 54 53 54 54 52 53 53 55 56 58 56 57 60 57 57 57 57 57 59 59 64
59 57 56 55 55 54 54 54 54 54 53 54 54 55 56 56 57 55 53 50 49 51 52 52 52 52 51 51 52 50 53 52 53 54 55 56 54 57 55 56 54 55 57
58 56 55 54 54 54 53 51 50 50 50 50 51 51 50 53 56 50 48 47 45 46 48 51 52 53 57 54 53 49 48 48 51 54 56 53 54 52 52 54 54 55 54
57 56 57 56 55 51 49 48 47 46 46 47 48 49 48 53 50 48 48 43 44 44 44 47 48 51 51 52 53 53 52 47 47 49 52 53 54 52 53 52 52 51 50
56 57 56 53 50 48 48 47 45 43 43 43 43 45 45 46 47 46 47 44 42 43 43 44 46 51 51 51 51 51 51 50 51 50 48 50 51 52 54 51 51 51 50
50 50 51 49 48 46 45 43 41 41 40 41 43 43 42 44 45 44 45 44 44 44 44 45 46 47 49 49 48 47 48 50 50 52 51 52 54 55 52 53 52 52 50
47 47 47 46 44 44 42 40 39 37 38 40 41 43 44 44 44 42 42 42 42 43 45 46 46 46 47 44 45 45 47 48 50 48 47 46 46 46 48 49 49 50 50
44 45 45 43 42 40 37 36 35 37 39 42 41 41 42 42 43 42 42 42 40 41 43 44 45 45 44 43 43 44 42 44 45 46 48 48 47 48 46 49 50 49 51
43 43 42 40 36 38 37 36 36 38 38 39 40 42 42 41 42 42 42 42 41 41 42 43 45 44 42 42 42 44 43 46 45 45 45 46 47 48 48 50 52 54 51
40 39 37 35 36 37 33 36 38 39 38 38 38 38 40 43 43 43 41 41 43 41 41 43 44 42 41 41 41 41 40 41 43 42 42 43 43 45 49 50 51 54 56
35 34 33 34 33 33 35 36 36 37 36 36 37 37 39 41 42 42 41 41 41 41 43 43 42 41 40 40 40 40 41 41 41 41 41 42 45 48 49 50 52 55 56
31 31 30 30 33 35 36 36 35 35 35 35 35 36 37 38 39 40 41 41 41 42 42 42 41 40 40 41 41 42 43 43 42 41 41 44 47 47 47 49 51 53 52
30 29 32 34 34 34 35 35 35 37 36 34 35 35 35 35 38 39 38 38 39 39 39 39 38 38 38 39 40 41 43 44 43 43 43 44 46 47 47 50 51 51 51
30 32 32 32 33 34 33 34 38 38 38 38 38 37 38 38 38 38 38 38 38 37 37 36 36 37 37 38 38 40 42 45 45 46 47 47 48 49 49 51 52 51 50
30 31 32 33 33 32 32 32 32 37 40 39 38 38 38 38 38 38 38 38 37 36 36 36 36 37 37 38 39 41 42 47 49 48 49 49 49 49 48 50 52 52 51
31 33 32 32 33 33 33 34 34 34 34 35 39 38 38 38 38 38 38 37 38 38 36 36 36 37 38 39 41 42 45 47 48 49 49 49 50 50 50 50 51 52 53
32 32 33 33 34 34 33 34 34 34 34 34 35 37 37 37 37 38 38 38 38 38 38 39 40 40 40 41 42 44 46 47 48 50 50 50 51 51 51 52 52 45 47
33 34 34 33 33 32 33 32 33 33 33 33 33 33 35 34 35 39 42 41 40 40 40 40 42 43 44 45 45 46 47 47 48 49 49 51 52 53 52 52 52 49 49
32 34 33 33 32 32 32 32 32 31 31 31 32 33 33 33 36 38 40 43 43 43 44 44 45 46 48 48 48 48 50 50 50 48 49 50 52 53 53 51 50 51 52
32 33 33 32 33 32 32 32 31 31 30 30 31 33 33 34 35 36 39 41 45 47 48 47 47 47 48 48 50 52 51 50 49 51 52 54 53 53 53 52 52 52 53
34 34 34 34 33 32 32 32 32 31 30 30 31 31 32 33 34 35 37 40 42 45 48 48 48 48 50 51 51 50 51 52 51 52 53 54 54 54 54 54 54 53 52
33 34 34 33 33 32 32 31 31 31 31 31 30 31 31 32 33 34 36 38 40 41 43 47 49 50 51 50 50 49 46 51 56 55 56 55 54 53 56 55 55 54 50
34 33 32 31 31 32 31 31 31 31 31 31 31 31 31 32 32 34 35 36 38 39 41 45 49 52 52 51 49 47 39 36 48 45 56 56 56 56 55 54 54 53 49
33 33 32 31 30 31 30 30 30 31 31 31 31 31 31 31 32 32 33 34 35 38 40 43 46 49 53 51 46 38 35 35 43 39 54 55 54 54 54 54 54 54 49

GFSGL_sfc_temp_141.txt.gz
Temp
59 58 57 57 57 56 56 55 55 54 55 56 56 56 56 56 56 55 54 56 56 54 55 56 56 57 56 56 57 56 55 53 53 57 58 59 57 59 61 61 62 61 61
58 57 56 55 55 55 55 55 54 53 53 54 54 55 55 55 53 53 53 54 53 53 53 53 54 58 52 53 53 54 54 54 52 55 56 54 56 58 58 58 62 65 61
57 55 54 54 54 53 53 52 52 52 51 51 52 52 53 53 52 51 51 51 50 50 50 50 50 50 49 49 50 49 50 53 52 54 56 54 54 55 56 56 56 57 61
56 55 54 53 53 51 51 49 49 49 48 49 49 51 51 51 52 51 51 48 48 50 49 49 50 49 48 48 49 48 49 47 48 49 50 52 53 55 53 55 54 53 56
57 55 54 53 51 49 48 47 47 47 47 48 48 48 48 49 54 49 47 47 45 44 46 49 49 51 54 53 51 48 45 46 47 48 49 48 50 50 49 52 51 56 53
53 51 51 49 48 46 46 45 44 44 43 43 44 45 45 49 49 48 48 44 42 42 42 44 46 49 49 51 52 52 52 46 45 47 48 48 50 50 54 50 50 49 51
48 49 49 47 46 44 44 43 42 40 39 39 41 42 42 42 45 45 46 43 41 41 42 43 44 48 49 49 50 51 51 51 51 48 45 46 47 51 51 51 49 49 51
45 46 46 45 44 43 42 40 38 38 38 38 38 39 39 42 44 43 44 43 42 42 43 43 44 45 46 46 46 48 48 49 49 49 48 49 50 51 49 51 50 51 50
43 42 43 43 41 40 39 37 37 35 35 36 38 41 39 39 42 42 42 41 42 42 44 45 45 44 44 43 45 45 46 47 50 48 47 46 45 45 46 46 44 46 47
41 41 41 40 38 36 35 34 34 34 35 37 39 41 41 42 43 42 41 42 40 41 43 44 45 44 43 42 42 43 42 44 46 47 47 47 45 47 46 46 47 44 46
40 39 38 37 34 34 33 32 34 36 37 39 40 41 41 39 39 41 42 42 41 41 41 42 44 43 42 41 41 43 43 45 45 45 45 46 47 47 48 49 49 48 47
37 35 34 33 33 34 30 35 35 35 37 37 38 37 38 39 41 41 41 41 42 39 40 42 44 42 41 40 41 41 40 42 42 42 42 42 43 44 45 48 49 49 51
33 31 30 30 30 30 31 34 35 36 35 35 36 36 37 39 41 42 41 40 41 40 42 42 42 41 40 40 40 40 40 41 41 40 40 42 44 46 48 46 48 49 49
29 29 29 30 32 35 36 36 35 34 34 35 35 35 36 37 38 40 41 41 41 41 41 41 41 41 41 41 41 41 42 42 41 41 41 44 45 45 44 45 45 47 48
30 31 32 33 34 34 35 35 35 37 36 33 34 35 34 35 37 38 38 38 39 39 39 39 38 38 38 38 39 39 40 41 41 43 43 42 43 44 44 46 47 47 47
30 31 32 33 33 34 33 34 38 37 38 38 38 37 38 38 38 38 38 38 37 37 37 36 36 37 37 37 37 38 39 41 42 44 44 44 44 45 46 48 48 48 49
30 31 32 33 33 32 33 33 32 36 39 39 38 38 38 37 37 37 37 37 37 37 37 37 36 37 37 37 38 38 39 42 45 47 47 47 48 49 47 49 50 50 49
32 34 32 33 33 33 33 33 33 32 32 34 38 37 38 37 37 36 37 38 40 39 38 37 37 38 38 38 39 40 42 43 44 46 47 49 49 48 48 49 50 50 51
32 33 33 33 33 33 32 32 33 33 32 32 34 36 36 36 36 37 38 40 40 40 41 40 41 41 41 42 42 42 43 43 44 46 48 49 50 49 49 50 49 42 46
33 34 34 33 33 32 32 32 31 31 31 31 31 31 33 33 33 35 38 39 41 42 43 43 43 44 44 44 44 45 45 46 46 48 49 50 50 51 50 51 51 50 51
33 33 32 33 33 33 32 32 31 31 30 30 30 32 32 31 33 34 35 38 39 41 42 44 46 47 47 48 47 47 48 49 50 50 49 49 51 52 52 52 51 52 51
33 33 34 33 34 33 32 33 32 31 31 30 31 32 32 32 33 33 35 37 38 40 42 42 44 47 48 49 50 50 50 51 49 49 50 51 51 53 52 52 51 52 49
33 32 32 33 33 33 32 32 31 31 31 31 31 31 31 31 32 33 34 36 37 38 39 40 42 45 49 51 50 49 48 52 49 50 52 53 53 53 52 51 52 51 49
33 33 32 31 31 31 31 31 31 31 31 31 31 31 31 31 32 32 34 35 36 37 38 40 42 44 47 49 49 48 45 43 53 52 54 54 53 51 54 52 52 49 47
32 32 31 30 29 29 30 30 29 30 30 30 30 31 31 31 32 32 33 34 35 36 37 40 42 43 45 47 44 44 39 35 47 45 55 56 55 55 55 53 49 47 46
31 31 31 30 29 29 28 28 28 29 29 30 30 30 30 30 31 32 33 33 34 35 37 39 41 42 44 46 43 37 36 35 39 38 54 55 55 54 54 52 51 48 46